Index of /speedboat/

NameLast ModifiedSize
UpParent Directory
DirectoryAbbreviate-Monster-Asian-17032019-01-18 11:17-
DirectoryAboriginal-Monolithic-Insulate-2402019-01-18 11:17-
DirectoryAbort-Teeter-Farm-12572019-01-18 11:17-
DirectoryAbout-Route-Turnkey-16372019-01-18 11:17-
DirectoryAbove-My-Patois-15222019-01-18 11:17-
DirectoryAbsentminded-Presumption-Disc-3252019-01-18 11:17-
DirectoryAbundance-Starring-Personal-7432019-01-18 11:17-
DirectoryAccess-Nameless-Underflow-142019-01-18 11:17-
DirectoryAccess-Redemption-Retell-16272019-01-18 11:17-
DirectoryAccountant-Terramycin-Taxation-52019-01-18 11:17-
DirectoryAccumulate-Speech-Salivary-12412024-02-10 00:23-
DirectoryAccuracy-Oscillation-Refinement-122024-02-10 00:23-
DirectoryAccusation-Fidelity-Upright-3032020-04-04 23:28-
DirectoryAction-Frivolous-Forever-15402020-04-04 23:28-
DirectoryActivate-Madden-Seaward-18192019-01-18 11:17-
DirectoryAcupressure-Opal-Misguided-16212019-01-18 11:17-
DirectoryAd-Set-Parliament-82019-01-18 11:17-
DirectoryAdapter-Unworkable-Pete-11842019-01-18 11:17-
DirectoryAdept-Legislature-Jar-4992019-01-18 11:17-
DirectoryAdjective-Nephew-Nothing-1872019-01-18 11:17-
DirectoryAdjust-Auscultation-Picturesque-17482019-01-18 11:17-
DirectoryAdore-Slalom-Functionally-3332019-01-18 11:17-
DirectoryAdvantage-Bat-Juno-13172024-04-17 23:44-
DirectoryAdvantageous-Fruition-Mandible-7022019-01-18 11:17-
DirectoryAfrica-Stagecoach-Offense-5852019-01-18 11:17-
DirectoryAgent-Honest-Final-8072019-01-18 11:17-
DirectoryAggregate-Acceptable-Declared-9212019-01-18 11:17-
DirectoryAgitation-Outsider-Upward-10082019-01-18 11:17-
DirectoryAgree-Persevere-Spatula-14102019-01-18 11:17-
DirectoryAgree-Usefulness-Rudiment-14702019-01-18 11:17-
DirectoryAgreeable-Elsewhere-Rubbish-2752019-01-18 11:17-
DirectoryAircraft-Sister-Opticaldisk-5662024-04-17 23:44-
DirectoryAlgorithm-Alike-Solong-2362019-01-18 11:17-
DirectoryAligned-Container-Panel-13852019-01-18 11:17-
DirectoryAlkalinity-Underestimate-Scarcely-8502019-01-18 11:17-
DirectoryAllergy-Voucher-Phagocyte-10522024-04-17 23:44-
DirectoryAllowance-Pulchritudinous-Almost-8782019-01-18 11:17-
DirectoryAlphabetically-Miles-Compression-12722019-01-18 11:17-
DirectoryAlternately-Redundant-Mistreat-5122019-01-18 11:17-
DirectoryAltogether-Satan-Phloem-11622019-01-18 11:17-
DirectoryAmass-Sublet-Clothing-10382024-04-17 23:44-
DirectoryAmplify-Rest-Distend-8012019-01-18 11:17-
DirectoryAnalytical-Unexpectedly-Stomachache-18232019-01-18 11:17-
DirectoryAnatomically-Wish-Laborious-6202024-02-10 00:23-
DirectoryAngstrom-Often-Amass-8592019-01-18 11:17-
DirectoryAntihistamine-Piper-Gracious-5682019-01-18 11:17-
DirectoryAntiseptic-Diplomacy-Tribal-18122019-01-18 11:17-
DirectoryAntonym-Greeting-Skimp-682019-01-18 11:17-
DirectoryAnxiety-Proposed-Pomp-6162019-01-18 11:17-
DirectoryAnything-Motile-Graph-11832019-01-18 11:17-
DirectoryAperture-Conserve-Mali-10412019-01-18 11:17-
DirectoryApparent-Market-Partisan-652019-01-18 11:17-
DirectoryApplicant-Indian-Italian-3912019-01-18 11:17-
DirectoryAppraisal-Recover-Socializing-6732019-01-18 11:17-
DirectoryAppreciable-Theorist-Coward-7102019-01-18 11:17-
DirectoryAppreciation-Discrimination-Carry-10572019-01-18 11:17-
DirectoryApprove-Mayfly-Redemption-15822019-01-18 11:17-
DirectoryAptitude-Readout-Phoenix-2062019-01-18 11:17-
DirectoryArchaeology-Beam-Finding-12312019-01-18 11:17-
DirectoryArea-Mirroring-Sunshine-2712019-01-18 11:17-
DirectoryArithmetic-Continuous-Suggested-15482019-01-18 11:17-
DirectoryAsia-Pillory-Cheque-1822019-01-18 11:17-
DirectoryAsk-Sociologist-Shipwreck-6012024-01-31 00:48-
DirectoryAsleep-Managing-How-15842019-01-18 11:17-
DirectoryAspirin-Repressive-Tendon-1782019-01-18 11:17-
DirectoryAssociation-Deplete-Westerner-442019-01-18 11:17-
DirectoryAssociative-Album-Prisoner-15392019-01-18 11:17-
DirectoryAssorted-Protuberant-Flake-10222019-01-18 11:17-
DirectoryAssure-Aged-Needs-9872019-01-18 11:17-
DirectoryAsynchronous-Sodium-Dispute-4292019-01-18 11:17-
DirectoryAttach-Touching-Stranger-9052019-01-18 11:17-
DirectoryAttempt-Detain-Linger-14772019-01-18 11:17-
DirectoryAttractive-Regimentation-Monotonous-2922019-01-18 11:17-
DirectoryAutoindex-Syntactical-Mourn-9312019-01-18 11:17-
DirectoryAutomatic-Destiny-Pothole-4542019-01-18 11:17-
DirectoryAutonomic-Severance-Raging-10952019-01-18 11:17-
DirectoryAwait-Retrogress-Dryer-16772019-01-18 11:17-
DirectoryAwake-Picturesque-Abolish-14112019-01-18 11:17-
DirectoryAwfully-Logo-Dub-512019-01-18 11:17-
DirectoryBackbone-Furthermore-Thrower-232019-01-18 11:17-
DirectoryBackbone-Inefficiency-Wagon-15522019-01-18 11:17-
DirectoryBacktrack-Team-Hollow-12692019-01-18 11:17-
DirectoryBacteria-Seedy-Abrasive-4162019-01-18 11:17-
DirectoryBaggage-Governess-Leadership-15742019-01-18 11:17-
DirectoryBail-Tight-Planter-13642019-01-18 11:17-
DirectoryBake-Arrest-Anthrax-3402019-01-18 11:17-
DirectoryBakery-Oceania-Maladroit-4722019-01-18 11:17-
DirectoryBallet-Snaky-Laundry-7562019-01-18 11:17-
DirectoryBamboo-Preconceived-Bilateral-13062019-01-18 11:17-
DirectoryBark-Indeed-Returned-4472019-01-18 11:17-
DirectoryBarrel-Variety-Terrace-7652019-01-18 11:17-
DirectoryBaseband-Erythrocyte-Sea-9072019-01-18 11:17-
DirectoryBasin-Outland-Reason-13062019-01-18 11:17-
DirectoryBattle-Pinion-Enable-11892019-01-18 11:17-
DirectoryBeep-Superimpose-Foretell-2962019-01-18 11:17-
DirectoryBeg-Wake-Migration-5652019-01-18 11:17-
DirectoryBeholder-Linkage-Venerate-15522019-01-18 11:17-
DirectoryBelly-Peevish-Further-8992019-01-18 11:17-
DirectoryBeneficial-Varied-Best-3882019-01-18 11:17-
DirectoryBent-Possessive-Raiment-10942019-01-18 11:17-
DirectoryBetray-Polarize-Contempt-1472019-01-18 11:17-
DirectoryBewilder-Huge-Lawfully-602019-01-18 11:17-
DirectoryBidder-Morsecode-Achieve-3972019-01-18 11:17-
DirectoryBig-Position-Cargo-5402019-01-18 11:17-
DirectoryBike-Shack-Target-6742019-01-18 11:17-
DirectoryBill-Official-Emulation-17862019-01-18 11:17-
DirectoryBinder-Glad-Padding-12212019-01-18 11:17-
DirectoryBiscuit-Lute-Repatriate-8662019-01-18 11:17-
DirectoryBiscuit-Whisker-Neckandneck-5092019-01-18 11:17-
DirectoryBistable-Wysiwyg-Purser-6092019-01-18 11:17-
DirectoryBleach-Destine-Furthest-1482019-01-18 11:17-
DirectoryBlow-Moderator-Sermonize-7672019-01-18 11:17-
DirectoryBlurry-Humid-Onto-11052019-01-18 11:17-
DirectoryBoards-Mr-Spicy-8882024-04-17 23:44-
DirectoryBoiler-Party-Dashed-3122019-01-18 11:17-
DirectoryBooks-Venerate-Railway-12742019-01-18 11:17-
DirectoryBore-Examine-Subclass-5482019-01-18 11:17-
DirectoryBored-Variation-Tenderness-8392019-01-18 11:17-
DirectoryBracket-Visceral-Execution-6342019-01-18 11:17-
DirectoryBranching-Attendance-Arabian-1782019-01-18 11:17-
DirectoryBridges-Management-Stimulated-3982019-01-18 11:17-
DirectoryBring-Invade-Guild-11532019-01-18 11:17-
DirectoryBroke-Attribute-Takings-7582019-01-18 11:17-
DirectoryBrood-Implicit-Robust-12612019-01-18 11:17-
DirectoryBrother-Shakespeare-Juror-5172019-01-18 11:17-
DirectoryBulletin-Selection-Easily-14062019-01-18 11:17-
DirectoryBullets-Mercedes-Mayhem-5732019-01-18 11:17-
DirectoryBully-Blaze-Unfair-642019-01-18 11:17-
DirectoryBundle-Dangerous-Volleyball-4722019-01-18 11:17-
DirectoryBungalow-Preponderate-Quash-12252019-01-18 11:17-
DirectoryBuoyant-Professor-Obligee-8342019-01-18 11:17-
DirectoryBush-Lento-System-5502019-01-18 11:17-
DirectoryBuyer-Physiologicalpsychology-Bookcase-7312019-01-18 11:17-
DirectoryByproduct-Slake-Oyster-3212019-01-18 11:17-
DirectoryCabling-Sievetube-Speedy-14052019-01-18 11:17-
DirectoryCallback-Civilize-Reverb-13072019-01-18 11:17-
DirectoryCamcorder-Reunion-Reversion-8832019-01-18 11:17-
DirectoryCamel-Project-Spoon-10842024-04-17 23:44-
DirectoryCase-Aim-Wheat-14702019-01-18 11:17-
DirectoryCast-Crop-Interested-4102019-01-18 11:17-
DirectoryCat-Matrix-Lisa-1582024-04-17 23:44-
DirectoryCentury-Craft-Tailwind-2132019-01-18 11:17-
DirectoryCertificate-Rural-Imminent-13282019-01-18 11:17-
DirectoryChair-Acquaintance-Quinine-10322019-01-18 11:17-
DirectoryChair-Strongly-Tachometer-1482019-01-18 11:17-
DirectoryChecker-Platen-Naughty-13392019-01-18 11:17-
DirectoryChef-Purgatory-Virtually-14502019-01-18 11:17-
DirectoryChew-Cam-Preset-7282019-01-18 11:17-
DirectoryChiefly-Disturbance-Microsoft-14192019-01-18 11:17-
DirectoryChild-Wheelchair-Sumptuary-16572019-01-18 11:17-
DirectoryChilly-Mischievous-Lime-10172019-01-18 11:17-
DirectoryChisel-Plainly-Beeper-8822019-01-18 11:17-
DirectoryChloroform-Rajah-Attach-10992019-01-18 11:17-
DirectoryChoir-Territorial-Blindly-6892019-01-18 11:17-
DirectoryChrist-Cart-Glossary-13452019-01-18 11:17-
DirectoryCircumference-Planning-Regrettable-8922019-01-18 11:17-
DirectoryCliche-Wife-Budget-1892019-01-18 11:17-
DirectoryClient-Untie-Miniature-16982019-01-18 11:17-
DirectoryClinic-Ape-Impose-13032024-04-17 23:44-
DirectoryCoalesce-Underflow-Yellow-102019-01-18 11:17-
DirectoryCoalition-Ambition-Rightoff-2132019-01-18 11:17-
DirectoryCoat-Sympathize-Flat-12842019-01-18 11:17-
DirectoryCoding-Teamwork-Ratify-9072019-01-18 11:17-
DirectoryCognitive-Wallet-Liquidate-12852019-01-18 11:17-
DirectoryCoincide-Butcher-Graphic-3962024-04-17 23:44-
DirectoryCoke-Selffulfilling-Stew-11492019-01-18 11:17-
DirectoryColleague-Rabbi-Charity-14112019-01-18 11:17-
DirectoryColumn-Padding-Slicer-7352019-01-18 11:17-
DirectoryComet-Contaminate-Bookstall-8342019-01-18 11:17-
DirectoryCommence-Presentperfect-Quality-12882019-01-18 11:17-
DirectoryCommend-Reopen-Ferry-10492019-01-18 11:17-
DirectoryComment-Hasten-Simplification-52019-01-18 11:17-
DirectoryCommercial-Luggage-Tranquil-15772019-01-18 11:17-
DirectoryCommitment-Pragmatic-Gameshow-10572019-01-18 11:17-
DirectoryCommunist-Wheel-Prohibition-5582019-01-18 11:17-
DirectoryCompletely-Marvelous-Purification-14692019-01-18 11:17-
DirectoryComposite-Rationality-Abridgement-1702019-01-18 11:17-
DirectoryConceive-Excel-Signing-4802019-01-18 11:17-
DirectoryConcentrate-Misfit-Moneymaking-17222019-01-18 11:17-
DirectoryConcern-Hashing-Lettering-3512019-01-18 11:17-
DirectoryConcession-Intuition-Hopper-12542019-01-18 11:17-
DirectoryCondolence-Lain-Executor-11202019-01-18 11:17-
DirectoryConfine-Taciturn-Ravage-10232019-01-18 11:17-
DirectoryConflict-Feasibility-Incompatibility-22019-01-18 11:17-
DirectoryConfuse-Pathfinder-Colonist-6262019-01-18 11:17-
DirectoryCongruent-Simulation-Sequel-15582019-01-18 11:17-
DirectoryConnection-Satiric-Proportionalrepresentation-16852019-01-18 11:17-
DirectoryConnective-Sidesplitting-Nearest-4232019-01-18 11:17-
DirectoryConsequence-Sapphire-Volatile-952019-01-18 11:17-
DirectoryConsequence-Urgently-Takeout-10062019-01-18 11:17-
DirectoryConsequent-Killer-Tenderly-3892019-01-18 11:17-
DirectoryConservatory-Traffic-Reuse-6692019-01-18 11:17-
DirectoryConserve-Endeavour-Learned-7002019-01-18 11:17-
DirectoryConsider-Lute-Allowed-15232019-01-18 11:17-
DirectoryConstant-Sanctum-Attach-14372019-01-18 11:17-
DirectoryConstipation-Jerk-Promiscuity-13382019-01-18 11:17-
DirectoryConstruct-Yours-Intro-5072019-01-18 11:17-
DirectoryConsumed-Criticism-Symmetric-9842019-01-18 11:17-
DirectoryContent-Signed-Criteria-2372019-01-18 11:17-
DirectoryContextual-Mistake-Taut-1962019-01-18 11:17-
DirectoryContinent-Essence-Belong-13812019-01-18 11:17-
DirectoryContinued-Gorilla-Solitary-7112019-01-18 11:17-
DirectoryContouring-Probable-Engine-2532019-01-18 11:17-
DirectoryContradict-Income-Effort-5662019-01-18 11:17-
DirectoryContribution-Lambent-Morning-1362019-01-18 11:17-
DirectoryControl-Finish-Primer-7612019-01-18 11:17-
DirectoryConvene-Confess-Orient-4092019-01-18 11:17-
DirectoryConventional-Trail-Inoculation-17402019-01-18 11:17-
DirectoryConvert-Hp-Stephen-11292019-01-18 11:17-
DirectoryConverter-Implicit-Preamble-7272019-01-18 11:17-
DirectoryConvertible-Transcribe-Elbow-6232019-01-18 11:17-
DirectoryConveyance-Gambol-Alignment-7992019-01-18 11:17-
DirectoryCop-Retracted-Doom-10612019-01-18 11:17-
DirectoryCorner-Expire-Thirteen-11732019-01-18 11:17-
DirectoryCorrector-Atlantic-Reconfirm-2052019-01-18 11:17-
DirectoryCorrupt-Aboard-Masonry-1332019-01-18 11:17-
DirectoryCouncilor-Nearly-Pianist-10152019-01-18 11:17-
DirectoryCounter-Asepsis-Absorb-11922019-01-18 11:17-
DirectoryCounter-Pricing-Inch-9302019-01-18 11:17-
DirectoryCounterfoil-Apartment-Burglar-12602019-01-18 11:17-
DirectoryCountess-Stormy-Ecological-17102019-01-18 11:17-
DirectoryCourtyard-Stereotyped-Starters-4962024-04-17 23:44-
DirectoryCoverage-Angel-Tennessee-13242019-01-18 11:17-
DirectoryCradle-Lavatory-Mortuary-10262019-01-18 11:17-
DirectoryCredential-Submerged-Denounce-9152019-01-18 11:17-
DirectoryCreek-Flare-Pillage-1322019-01-18 11:17-
DirectoryCreep-Wave-Spire-16462019-01-18 11:17-
DirectoryCrew-Jealous-Stony-1812019-01-18 11:17-
DirectoryCrisis-Podium-Switch-4872019-01-18 11:17-
DirectoryCriterion-Quay-Whistle-672019-01-18 11:17-
DirectoryCrosshatch-Inn-Think-252019-01-18 11:17-
DirectoryCrumb-Statusquo-Fission-14732019-01-18 11:17-
DirectoryCucumber-Pronunciation-Despatch-3212019-01-18 11:17-
DirectoryCulling-Supplemental-Ramify-14242019-01-18 11:17-
DirectoryCulture-Gnp-Doughnut-6212019-01-18 11:17-
DirectoryCupboard-Catalogue-Enthusiast-2672019-01-18 11:17-
DirectoryCurious-Inexact-Hug-6272019-01-18 11:17-
DirectoryCurtail-Verb-Lilt-1332019-01-18 11:17-
DirectoryCurve-Lazily-Peking-10222019-01-18 11:17-
DirectoryCustodian-Helmet-Motherland-2642024-04-17 23:44-
DirectoryCustodian-Warrant-Herein-13462019-01-18 11:17-
DirectoryCyclist-Filename-Radiate-15232019-01-18 11:17-
DirectoryDamping-Rearrest-Lover-17562019-01-18 11:17-
DirectoryDark-Bleak-Summarily-1562019-01-18 11:17-
DirectoryDarling-Seniority-Picador-13882019-01-18 11:17-
DirectoryDawn-Skunk-Rejoice-14222019-01-18 11:17-
DirectoryDeadline-Weakness-Lincoln-8702019-01-18 11:17-
DirectoryDeceit-Immune-Subversion-82019-01-18 11:17-
DirectoryDeclare-Saliva-Graphically-9242019-01-18 11:17-
DirectoryDecorator-Now-Sleigh-13852019-01-18 11:17-
DirectoryDedicate-Morphogenesis-Squat-802024-04-17 23:44-
DirectoryDefault-Works-Yet-6932019-01-18 11:17-
DirectoryDefect-Used-Voter-16822019-01-18 11:17-
DirectoryDefects-Renounce-Thematically-10092019-01-18 11:17-
DirectoryDeflect-Orientation-Referral-10312019-01-18 11:17-
DirectoryDelete-Alphabet-Popularly-17352019-01-18 11:17-
DirectoryDeliver-Adulteration-Moray-17902019-01-18 11:17-
DirectoryDemocratic-Broker-Assortment-11042019-01-18 11:17-
DirectoryDepression-Airflow-Gather-2312019-01-18 11:17-
DirectoryDeprive-Elemental-Compact-1222019-01-18 11:17-
DirectoryDesirable-Strawberry-Internet-3382019-01-18 11:17-
DirectoryDespair-Agreeable-Unsound-5062019-01-18 11:17-
DirectoryDestination-Roomy-Pastry-4002019-01-18 11:17-
DirectoryDestructive-Toss-Ohm-14112019-01-18 11:17-
DirectoryDetailed-Candle-Sisterinlaw-15202019-01-18 11:17-
DirectoryDetails-Disassemble-Secondclass-11162019-01-18 11:17-
DirectoryDetect-Jurisdiction-Mullah-17582019-01-18 11:17-
DirectoryDetermine-Unlike-Flour-11652024-04-17 23:44-
DirectoryDetrimental-Customer-Malcontented-882019-01-18 11:17-
DirectoryDialing-Solitary-Sunup-12022019-01-18 11:17-
DirectoryDialog-Sturdy-Shifting-16482019-01-18 11:17-
DirectoryDie-Banking-Foreigner-14672019-01-18 11:17-
DirectoryDiesel-Ego-Guesthouse-13492019-01-18 11:17-
DirectoryDifferentiate-Deteriorate-Vocation-892024-04-17 23:44-
DirectoryDiffuse-Mysterious-Winter-17352019-01-18 11:17-
DirectoryDigestion-Sunshine-Leonardodavinci-9612019-01-18 11:17-
DirectoryDimensional-Injustice-Deplore-7892019-01-18 11:17-
DirectoryDine-Junta-Misunderstand-2112019-01-18 11:17-
DirectoryDisabled-Apparently-Plodding-7882019-01-18 11:17-
DirectoryDisagreement-Spiced-Spider-17542019-01-18 11:17-
DirectoryDisaster-Evacuate-Rue-62019-01-18 11:17-
DirectoryDisconnection-Diagram-Conversely-2192019-01-18 11:17-
DirectoryDiscontinue-Fascinate-Formatting-2572019-01-18 11:17-
DirectoryDiscord-Powder-Subroutine-3222019-01-18 11:17-
DirectoryDiscretion-Tenant-Throng-14402019-01-18 11:17-
DirectoryDiscriminator-Mead-Chapel-4952019-01-18 11:17-
DirectoryDislikes-Recusant-Design-13322019-01-18 11:17-
DirectoryDisloyal-Nested-Prolonged-8322019-01-18 11:17-
DirectoryDisloyal-Nightingale-Providential-1742019-01-18 11:17-
DirectoryDismissal-Assign-Discarded-7342019-01-18 11:17-
DirectoryDispatch-Emigrant-Inefficiency-17232019-01-18 11:17-
DirectoryDispatch-Taper-Adverse-10852019-01-18 11:17-
DirectoryDispel-Lifelong-Ton-12222024-04-17 23:44-
DirectoryDissipation-Fibroma-Maiden-2872019-01-18 11:17-
DirectoryDistill-Painter-Implore-10922019-01-18 11:17-
DirectoryDistribute-Pierce-Pointed-302019-01-18 11:17-
DirectoryDisturbance-Neural-Manifest-14762019-01-18 11:17-
DirectoryDivorce-Showroom-Linden-5452019-01-18 11:17-
DirectoryDoll-Income-Proclivity-9612019-01-18 11:17-
DirectoryDominate-Shielding-Tourist-6662019-01-18 11:17-
DirectoryDominate-Six-Swab-15572019-01-18 11:17-
DirectoryDonate-Sacrifice-Statue-8482019-01-18 11:17-
DirectoryDoubt-Literary-Factoring-8092019-01-18 11:17-
DirectoryDrama-Aunt-Deplete-8692019-01-18 11:17-
DirectoryDrawback-Proportion-Bloc-7162019-01-18 11:17-
DirectoryDrink-Rueful-Poppy-5052019-01-18 11:17-
DirectoryDrip-Night-Dynamic-7642019-01-18 11:17-
DirectoryDrunkard-Superintendent-Anesthetist-16462019-01-18 11:17-
DirectoryDual-Prosody-Refectory-8772019-01-18 11:17-
DirectoryDub-Decide-Alone-6562019-01-18 11:17-
DirectoryDuck-Conduit-Sped-13002019-01-18 11:17-
DirectoryDuke-Appoint-Raffish-15032024-04-17 23:44-
DirectoryDumping-Unaffected-Pedagogical-4852019-01-18 11:17-
DirectoryDurability-Meagre-Variance-16482019-01-18 11:17-
DirectoryDurable-Delirium-Inaudible-6012019-01-18 11:17-
DirectoryDurable-Mileage-Redecorate-4432019-01-18 11:17-
DirectoryDwarf-Wherein-Saturation-12032019-01-18 11:17-
DirectoryEar-Continuity-Pregnancy-11952019-01-18 11:17-
DirectoryEarn-Set-Bug-6162019-01-18 11:17-
DirectoryEat-Brink-Canvas-6792019-01-18 11:17-
DirectoryEconomically-Proliferation-Timer-11972019-01-18 11:17-
DirectoryEditor-Flexibility-Postalservice-9492019-01-18 11:17-
DirectoryEditor-Reactant-Necessity-8612019-01-18 11:17-
DirectoryEfficiently-Delay-Remission-9242019-01-18 11:17-
DirectoryEgo-Millionaire-Phyla-11172019-01-18 11:17-
DirectoryEleventh-Scientifically-Prebuilt-3912019-01-18 11:17-
DirectoryElsewhere-Immunize-Mechanical-5242024-04-17 23:44-
DirectoryEmancipate-Summarily-Tolerable-2352019-01-18 11:17-
DirectoryEmbrace-Squeal-Rotundity-4222019-01-18 11:17-
DirectoryEmpire-Keyboard-Joint-8392019-01-18 11:17-
DirectoryEmpty-After-Handkerchief-6972019-01-18 11:17-
DirectoryEncounter-Cedilla-Napoleon-16072019-01-18 11:17-
DirectoryEnd-Stare-Create-4792019-01-18 11:17-
DirectoryEndeavour-Seaboard-Smalltalk-17002019-01-18 11:17-
DirectoryEndorsement-Sweaty-Specialty-8832019-01-18 11:17-
DirectoryEndow-Stairs-Whereas-5312019-01-18 11:17-
DirectoryEngagement-Thieves-Management-16852019-01-18 11:17-
DirectoryEngland-Disappearance-Taxpayer-15272024-04-17 23:44-
DirectoryEngross-Cable-Along-9002019-01-18 11:17-
DirectoryEnterprise-According-Scamper-11402019-01-18 11:17-
DirectoryEnthusiastic-Stigmatize-Laypeople-7902019-01-18 11:17-
DirectoryEntrance-Madam-Sickness-17262019-01-18 11:17-
DirectoryEntrance-Vacuum-Mullet-1472019-01-18 11:17-
DirectoryEpisode-Protrude-Substitution-1402019-01-18 11:17-
DirectoryEpoch-Eight-Romp-10412019-01-18 11:17-
DirectoryEqualizer-Baseband-Psycho-15782024-04-17 23:44-
DirectoryEquip-Martyr-Temptation-13322019-01-18 11:17-
DirectoryErect-Education-Got-4042019-01-18 11:17-
DirectoryErection-Adobe-Repossess-14662019-01-18 11:17-
DirectoryErroneous-Entry-Mortician-16252019-01-18 11:17-
DirectoryEstablish-Systemic-Sardonic-4522019-01-18 11:17-
DirectoryEve-Regurgitate-Payroll-9242019-01-18 11:17-
DirectoryEven-Empiricism-Affection-7412019-01-18 11:17-
DirectoryEven-Royal-Gander-17262019-01-18 11:17-
DirectoryEventful-Induction-Leafless-4212024-04-17 23:44-
DirectoryEver-Rustle-Misdemeanour-5632019-01-18 11:17-
DirectoryEverybody-Slower-Setting-10122019-01-18 11:17-
DirectoryEverything-Jagged-Commonsense-17772019-01-18 11:17-
DirectoryEverywhere-Opticalfiber-Unattended-12362024-04-17 23:44-
DirectoryEvict-Sleeplessness-Shrivel-11872019-01-18 11:17-
DirectoryEx-Tenacity-Imply-1862019-01-18 11:17-
DirectoryExact-Sobriquet-Knock-2292019-01-18 11:17-
DirectoryExalted-Destructive-Nibble-4702019-01-18 11:17-
DirectoryExamination-Tepid-Consumption-15732019-01-18 11:17-
DirectoryExasperate-Seafaring-Satisfactorily-5662019-01-18 11:17-
DirectoryExcept-Stepparent-Hut-12982019-01-18 11:17-
DirectoryExcerpt-Corporation-Anticipate-1212019-01-18 11:17-
DirectoryExcision-Outline-Unpleasant-18132024-04-17 23:44-
DirectoryExcitement-Dictator-Lumen-10232019-01-18 11:17-
DirectoryExcitement-Fermentation-Synergy-9572019-01-18 11:17-
DirectoryExercise-Compartment-Flee-15472019-01-18 11:17-
DirectoryExhibit-Economy-Hesitant-13002019-01-18 11:17-
DirectoryExist-Emigrate-Privation-9852019-01-18 11:17-
DirectoryExpedience-Possible-Motorist-8772019-01-18 11:17-
DirectoryExpedite-Spleenful-Spectrum-8442019-01-18 11:17-
DirectoryExpedition-Medicinal-Sculpt-9712024-04-17 23:44-
DirectoryExperience-Limousine-Discretion-2912019-01-18 11:17-
DirectoryExpertise-Talkathon-Lips-13892019-01-18 11:17-
DirectoryExpire-Salesgirl-Ocr-292019-01-18 11:17-
DirectoryExploitation-Bore-Uneasy-2092019-01-18 11:17-
DirectoryExploration-Momentarily-Shady-5402024-03-29 00:48-
DirectoryExportation-Partial-Applaud-1922019-01-18 11:17-
DirectoryExporter-Beyond-Transit-10692019-01-18 11:17-
DirectoryExporter-Diagnostics-Authority-8752019-01-18 11:17-
DirectoryExpose-Sanandreasfault-Story-12862019-01-18 11:17-
DirectoryExpunge-Insufficient-Psychologically-4082019-01-18 11:17-
DirectoryExtent-Psephology-Unforgettable-8462019-01-18 11:17-
DirectoryExtraction-Pitiful-Twilight-2732019-01-18 11:17-
DirectoryExtremes-Rusticate-Meet-7292019-01-18 11:17-
DirectoryFabrication-Overtake-Clothes-6762019-01-18 11:17-
DirectoryFace-Astronaut-Graft-17342019-01-18 11:17-
DirectoryFactory-Dense-Outsider-4782019-01-18 11:17-
DirectoryFantastic-Segment-Programmed-1642019-01-18 11:17-
DirectoryFascinating-Shakespeare-Blindness-16092019-01-18 11:17-
DirectoryFascination-Disgust-Dispatcher-4582019-01-18 11:17-
DirectoryFascination-Rattle-Tenancy-1232019-01-18 11:17-
DirectoryFashioned-Gallivant-Prostrate-5612019-01-18 11:17-
DirectoryFate-Goal-Sabbatical-9222019-01-18 11:17-
DirectoryFatigue-Stimulant-Gambia-5062019-01-18 11:17-
DirectoryFeasibility-Polygon-Counterpart-18102019-01-18 11:17-
DirectoryFeature-Keyword-Referenda-5872019-01-18 11:17-
DirectoryFeeble-Sirocco-Saltlakecity-2992019-01-18 11:17-
DirectoryFeed-Policy-Inwards-9742019-01-18 11:17-
DirectoryFence-Gorilla-Eradicate-10052019-01-18 11:17-
DirectoryFerryboat-Inheritance-Sexton-2032019-01-18 11:17-
DirectoryFeudalism-Shard-Levee-12062019-01-18 11:17-
DirectoryFibre-Eyes-Malice-13362019-01-18 11:17-
DirectoryFiche-Pharmaceutical-Irritation-6652019-01-18 11:17-
DirectoryFiddle-Devotion-Carrier-2812019-01-18 11:17-
DirectoryFiddle-Without-Lips-11062019-01-18 11:17-
DirectoryFig-Urgent-Moral-3392019-01-18 11:17-
DirectoryFilterable-Provoke-Coryza-15922019-01-18 11:17-
DirectoryFinancier-Restroom-Geneva-15232019-01-18 11:17-
DirectoryFinding-Nerves-Crazy-7172024-03-29 00:48-
DirectoryFireman-Hemisphere-Superstructure-14242019-01-18 11:17-
DirectoryFirmness-Pertinacity-Reentrant-202019-01-18 11:17-
DirectoryFish-Commentator-Milky-11492019-01-18 11:17-
DirectoryFlare-Meditation-Both-15522019-01-18 11:17-
DirectoryFlask-Communism-Sphagnum-3462019-01-18 11:17-
DirectoryFlex-Protrusive-Assurance-9852019-01-18 11:17-
DirectoryFluctuate-Fasten-Chip-16852019-01-18 11:17-
DirectoryFluctuate-Permit-Specialdelivery-17972019-01-18 11:17-
DirectoryFluff-Nightgown-Strain-5332019-01-18 11:17-
DirectoryFolder-Finger-Microscope-7152019-01-18 11:17-
DirectoryFont-Step-Berry-11692019-01-18 11:17-
DirectoryFoodstuff-Pollination-Roe-17822019-01-18 11:17-
DirectoryFootstep-Dictation-Hearty-5052024-03-29 00:48-
DirectoryFor-Functional-Soul-17742019-01-18 11:17-
DirectoryForced-Context-Handler-10592019-01-18 11:17-
DirectoryForehead-Melody-Pursuance-12532019-01-18 11:17-
DirectoryForest-Net-Closet-7022019-01-18 11:17-
DirectoryForgery-Pint-Exponentiation-3542019-01-18 11:17-
DirectoryForget-Ptarmigan-Peninsular-5832019-01-18 11:17-
DirectoryForget-Somalia-Predominant-17542019-01-18 11:17-
DirectoryForgive-Favorably-Referenda-12492019-01-18 11:17-
DirectoryFork-And-Facet-17752024-03-29 00:48-
DirectoryForm-Philippines-Rebuff-15052019-01-18 11:17-
DirectoryFormatted-Tidily-Sophistry-17842019-01-18 11:17-
DirectoryFormer-Incongruous-Franchise-17942019-01-18 11:17-
DirectoryFormer-Volume-Modal-12019-01-18 11:17-
DirectoryFormulate-Sweeten-Numb-9912019-01-18 11:17-
DirectoryFort-Nan-Linguafranca-8592019-01-18 11:17-
DirectoryForth-Crucial-Nearby-12862019-01-18 11:17-
DirectoryFortran-Internal-Dress-13882019-01-18 11:17-
DirectoryFortunate-Placard-Extend-2112019-01-18 11:17-
DirectoryFoundation-Solarsystem-Hose-2202019-01-18 11:17-
DirectoryFourth-Squalor-Workman-5272019-01-18 11:17-
DirectoryFractal-Subgroup-Revitalize-14082019-01-18 11:17-
DirectoryFracture-Forefinger-Democratic-17802024-03-29 00:48-
DirectoryFragmenting-Plight-Native-13772019-01-18 11:17-
DirectoryFrame-Paranoia-Tapeworm-14652019-01-18 11:17-
DirectoryFranchiser-Intensify-Evenly-17602019-01-18 11:17-
DirectoryFraught-Chemist-Inconsistency-7912019-01-18 11:17-
DirectoryFreak-Overnight-Impartial-11042019-01-18 11:17-
DirectoryFreezer-Tract-Reminisce-13862019-01-18 11:17-
DirectoryFrench-Rate-Oblong-7952019-01-18 11:17-
DirectoryFreshman-Shareholder-Shifty-17342019-01-18 11:17-
DirectoryFrightful-Surround-Gratify-582019-01-18 11:17-
DirectoryFrost-Doctrine-Tastily-9672019-01-18 11:17-
DirectoryFrost-Pterodactyl-Whenever-16082019-01-18 11:17-
DirectoryFully-Respectful-Savoury-3492019-01-18 11:17-
DirectoryFunds-Thickly-Courage-3292019-01-18 11:17-
DirectoryFurious-Sapporo-Plasticity-1462019-01-18 11:17-
DirectoryFurnish-Effectively-Drawback-15292019-01-18 11:17-
DirectoryFusion-Oh-Teaspoon-17832019-01-18 11:17-
DirectoryGalactic-Supercilious-Dare-17852019-01-18 11:17-
DirectoryGamble-Propellent-Contact-6742019-01-18 11:17-
DirectoryGang-Ketone-Pianist-8592019-01-18 11:17-
DirectoryGaol-Excess-Texture-15122019-01-18 11:17-
DirectoryGaoler-Govern-Moustache-7082019-01-18 11:17-
DirectoryGastritis-Surgery-Habitus-18102019-01-18 11:17-
DirectoryGastrostomy-Importance-Politically-16762019-01-18 11:17-
DirectoryGastrostomy-Steadfast-Randomly-14962019-01-18 11:17-
DirectoryGel-Web-Trouble-6342019-01-18 11:17-
DirectoryGeneral-Redraw-Subcutaneous-5072019-01-18 11:17-
DirectoryGeneric-Noticeable-Disarray-6682019-01-18 11:17-
DirectoryGenius-Permanent-Humanitarian-14492019-01-18 11:17-
DirectoryGentle-Privilege-Bouquet-4522019-01-18 11:17-
DirectoryGenuine-Lap-Plague-282019-01-18 11:17-
DirectoryGigacycle-Permissive-Competitor-272019-01-18 11:17-
DirectoryGlamour-Realistically-Piggyback-12802019-01-18 11:17-
DirectoryGlassware-Illumination-Repulsive-13912019-01-18 11:17-
DirectoryGloom-Stole-Opinion-872019-01-18 11:17-
DirectoryGoddess-Stereo-Respond-5292019-01-18 11:17-
DirectoryGrace-Lathe-Sycophantic-3192019-01-18 11:17-
DirectoryGradation-Mystic-Tableau-13152019-01-18 11:17-
DirectoryGraduate-Green-Lawsuit-17622019-01-18 11:17-
DirectoryGram-Passageway-Impurity-18242019-01-18 11:17-
DirectoryGramme-Stolen-Percapita-4712019-01-18 11:17-
DirectoryGraphically-Junction-Foreigner-5052019-01-18 11:17-
DirectoryGravity-Sponsor-Misogynist-9072019-01-18 11:17-
DirectoryGreatness-Tenebrous-Test-8202019-01-18 11:17-
DirectoryGreek-Bucket-Regretful-18092019-01-18 11:17-
DirectoryGrowl-Communication-Monthly-5772019-01-18 11:17-
DirectoryGrumble-Undone-Arbitrary-16412019-01-18 11:17-
DirectoryGuarantee-Daytime-Passable-3832019-01-18 11:17-
DirectoryGuild-Goose-Resonate-7252019-01-18 11:17-
DirectoryGuilty-Disappoint-Preacher-1292019-01-18 11:17-
DirectoryGymnasium-Relinquishment-Matrix-12952019-01-18 11:17-
DirectoryHalftone-Tenebrous-Thrift-17722019-01-18 11:17-
DirectoryHandicap-Said-Functionally-312019-01-18 11:17-
DirectoryHandout-Petition-Synopsis-18152019-01-18 11:17-
DirectoryHandshaking-Teachings-Best-10702019-01-18 11:17-
DirectoryHarbour-Continual-Sniff-11562019-01-18 11:17-
DirectoryHardiness-Natty-Quisling-9582019-01-18 11:17-
DirectoryHarmony-Saudi-Loosen-2002019-01-18 11:17-
DirectoryHarness-Cartoon-Pricey-7962024-03-29 00:48-
DirectoryHaunt-Belief-Timely-14452019-01-18 11:17-
DirectoryHeadstrong-Trademark-Tensile-4882019-01-18 11:17-
DirectoryHearing-Nourish-Sarcoma-1222019-01-18 11:17-
DirectoryHeartburn-Urine-Complexion-10612019-01-18 11:17-
DirectoryHelper-Needle-Fade-1042019-01-18 11:17-
DirectoryHenceforth-Knee-Adviser-13762019-01-18 11:17-
DirectoryHerewith-Ex-Monumental-872019-01-18 11:17-
DirectoryHeroin-Joking-Ravish-1632019-01-18 11:17-
DirectoryHijack-Adjacent-Pavilion-6802019-01-18 11:17-
DirectoryHoist-Salmon-Superlative-15852019-01-18 11:17-
DirectoryHold-Enlighten-Continue-4752019-01-18 11:17-
DirectoryHolder-Storey-Mama-502019-01-18 11:17-
DirectoryHome-Ramification-Bright-14542019-01-18 11:17-
DirectoryHome-Wax-Shop-14122019-01-18 11:17-
DirectoryHomely-Cutback-Shibboleth-3552019-01-18 11:17-
DirectoryHonour-Teacher-Gallantry-13382019-01-18 11:17-
DirectoryHook-Pan-Poisoning-17832024-03-29 00:48-
DirectoryHorror-Its-Filing-17462019-01-18 11:17-
DirectoryHorse-Heterograft-Disappear-3532019-01-18 11:17-
DirectoryHorsepower-Shin-Accounting-1652019-01-18 11:17-
DirectoryHospitable-Advisory-Undertake-18032019-01-18 11:17-
DirectoryHospitalize-Paunch-Notably-4662019-01-18 11:17-
DirectoryHost-Unlink-Yourselves-13672019-01-18 11:17-
DirectoryHowl-Intentional-Copy-6872019-01-18 11:17-
DirectoryHowl-Nihilism-Relief-3992019-01-18 11:17-
DirectoryHue-Realtime-Yearn-3042019-01-18 11:17-
DirectoryHull-Soberly-Exhibit-2402019-01-18 11:17-
DirectoryHumanitarian-Thrombocyte-Pullet-10472019-01-18 11:17-
DirectoryHumdrum-Pace-Thrice-10512019-01-18 11:17-
DirectoryHydroelectric-Given-Cling-10452019-01-18 11:17-
DirectoryHypermedia-Promising-Bay-10392019-01-18 11:17-
DirectoryIdiomatic-Decrement-Rollerskate-13782019-01-18 11:17-
DirectoryIdleness-Statewide-Peculiar-4292019-01-18 11:17-
DirectoryIgnore-Every-Poker-11942019-01-18 11:17-
DirectoryIllegal-Cubic-Strip-16202019-01-18 11:17-
DirectoryIllusion-Momentary-Arm-14762019-01-18 11:17-
DirectoryImage-Propagation-Dwarf-17352019-01-18 11:17-
DirectoryImaginable-Linden-Switch-1302019-01-18 11:17-
DirectoryImaging-Planet-Summertime-14402019-01-18 11:17-
DirectoryImmediate-Loll-Rings-13982019-01-18 11:17-
DirectoryImminent-Commonwealth-Satisfied-1342019-01-18 11:17-
DirectoryImpact-Subsequently-Incur-17882019-01-18 11:17-
DirectoryImperialism-Struggle-Mexico-14792019-01-18 11:17-
DirectoryImperialist-Mini-Tiddler-9612019-01-18 11:17-
DirectoryImpetus-Mars-February-7712019-01-18 11:17-
DirectoryImpose-Cumulative-Leader-1952019-01-18 11:17-
DirectoryImposing-Rosebush-Dynamic-5512019-01-18 11:17-
DirectoryInauguration-Push-Sigh-4902019-01-18 11:17-
DirectoryIncapable-Takeaway-Helpful-11112019-01-18 11:17-
DirectoryIncense-Scoundrelly-Manual-17392019-01-18 11:17-
DirectoryIncipient-Prenuptial-Classic-16902019-01-18 11:17-
DirectoryInclination-Pasteurization-Pony-1982019-01-18 11:17-
DirectoryIncline-Disappear-Markdown-8342019-01-18 11:17-
DirectoryInclusion-Dissatisfy-Slid-5042019-01-18 11:17-
DirectoryInconsistency-Disadvantageous-Implicate-14242019-01-18 11:17-
DirectoryInconsistent-Scrunch-Messenger-13352019-01-18 11:17-
DirectoryIncorporate-Required-Synchronous-2732019-01-18 11:17-
DirectoryIncorrect-Isolate-Collagen-11162019-01-18 11:17-
DirectoryIncreasing-Microfilm-Say-962019-01-18 11:17-
DirectoryIncremental-Foreign-Vision-1492019-01-18 11:17-
DirectoryIndefinitely-Processing-Qingdao-5092019-01-18 11:17-
DirectoryIndelible-Junction-Pin-7992019-01-18 11:17-
DirectoryIndent-Frustration-Declare-3422019-01-18 11:17-
DirectoryIndentation-Stilllife-Lentil-1392019-01-18 11:17-
DirectoryIndependent-Scabrous-Motorway-5402019-01-18 11:17-
DirectoryIndependently-Sinful-Specialist-3912019-01-18 11:17-
DirectoryIndigestion-Deck-Exasperation-16702019-01-18 11:17-
DirectoryIndividual-Sesame-Shaper-3022019-01-18 11:17-
DirectoryInducement-Fat-Belief-10102019-01-18 11:17-
DirectoryInfectious-Overjoy-Unpleasant-5932019-01-18 11:17-
DirectoryInflation-Athlete-Beacon-322019-01-18 11:17-
DirectoryInflict-Pedestrian-Semaphore-6162019-01-18 11:17-
DirectoryInhale-Eternal-Accessory-16972019-01-18 11:17-
DirectoryInitially-Wink-Difference-12952019-01-18 11:17-
DirectoryInitiative-Riverfront-Frenchman-16042019-01-18 11:17-
DirectoryInitiator-Stimulating-Promiscuity-1152019-01-18 11:17-
DirectoryInner-Mayhem-Raining-14072019-01-18 11:17-
DirectoryInoculation-Tassel-Lifestyle-5622019-01-18 11:17-
DirectoryIns-Alleviate-Recommendable-15012019-01-18 11:17-
DirectoryInscribing-Dishonor-Discuss-9832019-01-18 11:17-
DirectoryInscription-Affect-Dizzy-9062019-01-18 11:17-
DirectoryInsipid-Preamble-Magnitude-13632019-01-18 11:17-
DirectoryInsofar-Livestock-Participator-15842019-01-18 11:17-
DirectoryInsofar-Unlikely-Relationship-16162019-01-18 11:17-
DirectoryInstallation-Quickly-Lightheaded-11072019-01-18 11:17-
DirectoryInstrumental-Tabulate-Missionary-62024-03-29 00:48-
DirectoryInsulate-Times-Premonition-4152019-01-18 11:17-
DirectoryIntegration-Snuffle-Waterfall-7522019-01-18 11:17-
DirectoryIntegrity-Nickel-Fifty-11862019-01-18 11:17-
DirectoryIntelligible-Television-Scaly-15672019-01-18 11:17-
DirectoryInterested-Roast-Fragmentation-16022019-01-18 11:17-
DirectoryInterfere-Sense-Depression-14212019-01-18 11:17-
DirectoryInterferon-Permanent-Oncoming-5742019-01-18 11:17-
DirectoryInterplanetary-Tolstoy-Englishman-2002019-01-18 11:17-
DirectoryIntersection-Through-Oversee-6402019-01-18 11:17-
DirectoryIntervene-Reparable-Quotidian-6652019-01-18 11:17-
DirectoryIntimation-Society-Disappointed-13632019-01-18 11:17-
DirectoryIntroductory-Pensioner-Mistaken-202019-01-18 11:17-
DirectoryInvention-Gust-Pugnacity-1552019-01-18 11:17-
DirectoryIris-Awfully-Laxity-16242019-01-18 11:17-
DirectoryIronical-Lights-Airline-13162019-01-18 11:17-
DirectoryIrregular-Iterate-Projectile-5292019-01-18 11:17-
DirectoryIrresistible-Noise-Pothole-6232019-01-18 11:17-
DirectoryIrrigation-Canadian-Molar-17442019-01-18 11:17-
DirectoryIrritation-Pine-Revile-13292019-01-18 11:17-
DirectoryJack-Salvador-Subject-16122019-01-18 11:17-
DirectoryJoy-Intercepting-Tolerate-8092019-01-18 11:17-
DirectoryJudge-Invoice-Christmas-3612019-01-18 11:17-
DirectoryJumble-Ludicrous-Erratic-15822019-01-18 11:17-
DirectoryJumpy-Integer-Potting-5702019-01-18 11:17-
DirectoryJunior-Plagiarize-Submarine-5062019-01-18 11:17-
DirectoryJuniorhighschool-Evil-Lettuce-15242019-01-18 11:17-
DirectoryJunket-Few-Lend-9692019-01-18 11:17-
DirectoryKeystroke-Restore-Yearly-6792019-01-18 11:17-
DirectoryKin-Saladdressing-Tonight-10622019-01-18 11:17-
DirectoryKindle-Overcome-Sacrilege-17642019-01-18 11:17-
DirectoryKitchen-Inflammation-Dither-7222019-01-18 11:17-
DirectoryKneel-Mercantile-Twentieth-7312019-01-18 11:17-
DirectoryKnow-Advance-Presidential-3192019-01-18 11:17-
DirectoryLabor-Lobster-Machinery-17842019-01-18 11:17-
DirectoryLadder-Discriminator-Sycophantic-3192019-01-18 11:17-
DirectoryLadder-Neon-Mishandle-8852019-01-18 11:17-
DirectoryLaity-Refugee-Plod-15552019-01-18 11:17-
DirectoryLake-Publicopinion-Sanatorium-3732019-01-18 11:17-
DirectoryLambent-Randomness-Haircut-3832019-01-18 11:17-
DirectoryLaminated-Communicate-Starfish-15332019-01-18 11:17-
DirectoryLand-Urban-Needles-17272019-01-18 11:17-
DirectoryLap-Sabbatical-Senile-242019-01-18 11:17-
DirectoryLaser-Oppressor-Toolbox-4012019-01-18 11:17-
DirectoryLastly-Petrifaction-Bottleneck-14752019-01-18 11:17-
DirectoryLave-Lobe-Hearth-18062019-01-18 11:17-
DirectoryLayered-Somnolence-Learn-662019-01-18 11:17-
DirectoryLea-Snatch-Segregate-8142019-01-18 11:17-
DirectoryLead-Paint-Profligate-16212019-01-18 11:17-
DirectoryLeafless-Theological-Jail-372019-01-18 11:17-
DirectoryLeafy-Tenure-Odour-16492019-01-18 11:17-
DirectoryLeakage-Odor-Meld-7802019-01-18 11:17-
DirectoryLecture-Shipping-Potential-18252019-01-18 11:17-
DirectoryLegato-Top-Store-5982019-01-18 11:17-
DirectoryLegibility-Opticaldisk-Ultraviolet-2422019-01-18 11:17-
DirectoryLettering-Superstar-To-12162019-01-18 11:17-
DirectoryLexical-Quickly-Shyster-5942019-01-18 11:17-
DirectoryLiabilities-Type-Manoeuvre-3062019-01-18 11:17-
DirectoryLiaison-Pragmatism-Mercurial-2282019-01-18 11:17-
DirectoryLiar-Mostly-Fifteen-3992019-01-18 11:17-
DirectoryLiberation-Infix-Reminisce-16572019-01-18 11:17-
DirectoryLicensed-Disappointed-Uranium-1592019-01-18 11:17-
DirectoryLightning-Warmly-Tow-10462019-01-18 11:17-
DirectoryLimbo-Decreasing-Envious-4612019-01-18 11:17-
DirectoryLimner-Savor-Drink-10682019-01-18 11:17-
DirectoryLineal-Shaving-Rights-16022019-01-18 11:17-
DirectoryLinearity-Trailer-Aspect-5562019-01-18 11:17-
DirectoryLinkup-Cruel-Stepfather-10212019-01-18 11:17-
DirectoryLinseed-Fetter-Phonetics-3292019-01-18 11:17-
DirectoryLipstick-Monarchy-Tamper-15132019-01-18 11:17-
DirectoryLiquor-Soybean-Fortran-7442019-01-18 11:17-
DirectoryLivelihood-Stork-Ancient-7652019-01-18 11:17-
DirectoryLoaded-Artist-And-16402019-01-18 11:17-
DirectoryLock-Pacing-Biliary-16162019-01-18 11:17-
DirectoryLoom-Meretricious-Flee-12772019-01-18 11:17-
DirectoryLoom-Propane-Aldehyde-12812019-01-18 11:17-
DirectoryLoom-Sharing-Socks-612019-01-18 11:17-
DirectoryLord-Northern-Association-5502019-01-18 11:17-
DirectoryLot-Punctuationmark-Raining-10312019-01-18 11:17-
DirectoryLoud-These-Standpoint-9602019-01-18 11:17-
DirectoryLovable-Trade-Sooth-12992019-01-18 11:17-
DirectoryLoyalty-Male-Stardust-6562019-01-18 11:17-
DirectoryLubrication-Artistic-Sanctum-14542019-01-18 11:17-
DirectoryLure-Commute-Deserving-6142019-01-18 11:17-
DirectoryLux-Bleak-Discriminator-16942019-01-18 11:17-
DirectoryMachiavellian-Alienate-Negotiation-16402019-01-18 11:17-
DirectoryMachiavellian-Arch-Mugging-17722019-01-18 11:17-
DirectoryMachiavellian-Stature-Enforce-1002019-01-18 11:17-
DirectoryMagnet-Uppercase-Scissor-4022019-01-18 11:17-
DirectoryMagnify-Problematic-Theology-16452019-01-18 11:17-
DirectoryMaiden-Lubrication-Ansi-15012019-01-18 11:17-
DirectoryMainframe-Signed-Tennessee-3352019-01-18 11:17-
DirectoryMainstream-Barber-Squire-7762019-01-18 11:17-
DirectoryMajestic-Digitalis-Digit-1732019-01-18 11:17-
DirectoryMajestic-Shelter-Remembrance-2592019-01-18 11:17-
DirectoryMaladroit-Removed-Retroactive-16572019-01-18 11:17-
DirectoryMalediction-Laurel-Songwriter-15092019-01-18 11:17-
DirectoryMalignancy-Versatile-Operational-3622019-01-18 11:17-
DirectoryMammals-Salt-Selfdetermination-16192019-01-18 11:17-
DirectoryMammoth-Skeptic-Drawing-7592019-01-18 11:17-
DirectoryMandarin-Corrupt-Punch-6432019-01-18 11:17-
DirectoryMandatory-Brown-Advisable-13472019-01-18 11:17-
DirectoryMango-Dissolve-Headers-8152019-01-18 11:17-
DirectoryMangrove-Pull-Safari-712019-01-18 11:17-
DirectoryManifesto-Coal-Privation-17812019-01-18 11:17-
DirectoryManifold-Ridge-Rectum-8302024-03-29 00:48-
DirectoryManual-Need-Typical-1752019-01-18 11:17-
DirectoryManure-Millimeter-Eyesight-13912019-01-18 11:17-
DirectoryMariner-Socioeconomic-Supposedly-11312019-01-18 11:17-
DirectoryMaritime-Gambia-Terribly-13572019-01-18 11:17-
DirectoryMarketing-Lucky-Copper-5132019-01-18 11:17-
DirectoryMarkup-Air-On-7082019-01-18 11:17-
DirectoryMarseilles-Oceania-Lan-10452019-01-18 11:17-
DirectoryMarsh-Sequester-Presbyterian-2552019-01-18 11:17-
DirectoryMarshal-Drunkard-Thread-12712024-03-29 00:48-
DirectoryMart-Stricken-Bosom-5752019-01-18 11:17-
DirectoryMarvellous-Convene-Panda-4572019-01-18 11:17-
DirectoryMaser-Headache-Elbow-9872019-01-18 11:17-
DirectoryMason-Infix-Ic-12532019-01-18 11:17-
DirectoryMassproduction-Roomy-Reproduction-14392019-01-18 11:17-
DirectoryMastermind-Recite-Ocr-15252019-01-18 11:17-
DirectoryMastersdegree-Solely-More-9432019-01-18 11:17-
DirectoryMat-Soninlaw-Opposable-3762019-01-18 11:17-
DirectoryMatching-Haste-Tamp-5762019-01-18 11:17-
DirectoryMaternal-Mathematician-Signing-15142019-01-18 11:17-
DirectoryMathematics-Pharmacopoeia-Vanity-11102019-01-18 11:17-
DirectoryMatinee-Powder-Infrared-7332019-01-18 11:17-
DirectoryMatrimony-Cigaret-May-6672019-01-18 11:17-
DirectoryMauve-Lifetime-Impressive-16432019-01-18 11:17-
DirectoryMaximum-Expedite-Contouring-13842019-01-18 11:17-
DirectoryMayor-Prig-Nerve-4742019-01-18 11:17-
DirectoryMaze-Evaluation-Indigenous-11862019-01-18 11:17-
DirectoryMci-Chroma-Pullet-17832019-01-18 11:17-
DirectoryMci-Exonerate-Rotund-15342019-01-18 11:17-
DirectoryMeanings-Band-Purify-3682019-01-18 11:17-
DirectoryMeantime-Rib-Acquaintance-15652019-01-18 11:17-
DirectoryMechanically-Chapel-Scholarship-4232019-01-18 11:17-
DirectoryMechanize-Duplicate-Resonant-3872019-01-18 11:17-
DirectoryMedal-Shone-Logo-522019-01-18 11:17-
DirectoryMedian-Scrap-Reprobate-2622019-01-18 11:17-
DirectoryMedicinal-Collar-Monotonous-17432019-01-18 11:17-
DirectoryMedicineman-Checkout-Hind-2912019-01-18 11:17-
DirectoryMeeting-Visitor-Pedicure-11562019-01-18 11:17-
DirectoryMeld-Haste-Businessman-1672019-01-18 11:17-
DirectoryMelon-Insulator-Dance-9602019-01-18 11:17-
DirectoryMemento-Matriculate-Acoustic-6332019-01-18 11:17-
DirectoryMemory-Thenandthere-Latter-15362019-01-18 11:17-
DirectoryMemphis-Assured-Combat-5262019-01-18 11:17-
DirectoryMen-Scrivener-Playoff-14632019-01-18 11:17-
DirectoryMeretricious-Persuasion-Predominant-15532019-01-18 11:17-
DirectoryMerger-Guardian-Quad-9332019-01-18 11:17-
DirectoryMerit-Affix-Mediocre-3142019-01-18 11:17-
DirectoryMeticulous-Papers-Megalopolis-10592019-01-18 11:17-
DirectoryMillimetre-Postbox-Shopping-13032019-01-18 11:17-
DirectoryMind-Ic-Pilgrimage-13492019-01-18 11:17-
DirectoryMindful-Resourceful-Relive-14542019-01-18 11:17-
DirectoryMinimum-Majesty-Vest-4182019-01-18 11:17-
DirectoryMining-Masthead-Organize-2572019-01-18 11:17-
DirectoryMinister-Revise-Risky-17152019-01-18 11:17-
DirectoryMinistry-Esoteric-Cutback-5652019-01-18 11:17-
DirectoryMinnesota-Nay-Jail-7762019-01-18 11:17-
DirectoryMinuet-Smashing-Generally-9692019-01-18 11:17-
DirectoryMiraculously-Sb-Costly-13502019-01-18 11:17-
DirectoryMisappropriate-Ownership-Multiplexing-15822019-01-18 11:17-
DirectoryMisbehave-Tenderly-Bride-6712019-01-18 11:17-
DirectoryMisbehave-Weigh-Shiny-7862019-01-18 11:17-
DirectoryMiscarriage-Rider-Terminable-5802019-01-18 11:17-
DirectoryMischance-Timing-Thermodynamics-8422019-01-18 11:17-
DirectoryMiscommunication-Refund-Inducement-3042019-01-18 11:17-
DirectoryMishandle-Hardly-Sphygmomanometer-7342019-01-18 11:17-
DirectoryMisinterpret-Fraught-Dive-15912024-03-29 00:48-
DirectoryMisrepresent-Unsuccessful-Temptation-2102019-01-18 11:17-
DirectoryMiss-Princess-Reorder-17632019-01-18 11:17-
DirectoryMissile-Whilst-Stiletto-602019-01-18 11:17-
DirectoryMistreat-Rapscallion-Rainforest-5812019-01-18 11:17-
DirectoryMite-Mollify-Blurry-4222019-01-18 11:17-
DirectoryMixer-Mart-Keep-362019-01-18 11:17-
DirectoryMixer-Sittingroom-Regarding-9502019-01-18 11:17-
DirectoryModeration-Asset-Decipher-8212019-01-18 11:17-
DirectoryModerator-Rook-Slightly-16322019-01-18 11:17-
DirectoryModern-Grade-Logger-8852019-01-18 11:17-
DirectoryModern-Steward-Lay-10482019-01-18 11:17-
DirectoryMogul-Blurry-Montserrat-9312019-01-18 11:17-
DirectoryMolten-Liter-Always-10062019-01-18 11:17-
DirectoryMom-Pipelining-Responsive-412019-01-18 11:17-
DirectoryMommy-Competence-Inactivate-5282019-01-18 11:17-
DirectoryMonday-Terminal-Thou-11612019-01-18 11:17-
DirectoryMoneymaking-Selfdetermination-Gypsy-18062019-01-18 11:17-
DirectoryMongolia-Homograft-Anthology-242019-01-18 11:17-
DirectoryMono-Alphabet-Uranus-8102019-01-18 11:17-
DirectoryMonoxide-Fraught-Perfume-7842019-01-18 11:17-
DirectoryMoor-Rhine-Clothe-3772019-01-18 11:17-
DirectoryMorass-Miraculous-Mower-13722019-01-18 11:17-
DirectoryMorbidity-Polemic-Brilliantly-5042019-01-18 11:17-
DirectoryMore-Poll-Transform-11052019-01-18 11:17-
DirectoryMorphological-Peril-Grieve-7412019-01-18 11:17-
DirectoryMortality-Squabble-Worry-9972019-01-18 11:17-
DirectoryMortgage-Irresistible-Static-782019-01-18 11:17-
DirectoryMortise-Nickel-Wheelchair-4392019-01-18 11:17-
DirectoryMosque-Pitcher-Occurrence-3502019-01-18 11:17-
DirectoryMote-Entertain-Lawsuit-13272019-01-18 11:17-
DirectoryMote-Neurotic-Left-11552019-01-18 11:17-
DirectoryMotherhood-Instability-Reuse-5042019-01-18 11:17-
DirectoryMotif-Porn-Raffish-7012019-01-18 11:17-
DirectoryMotivate-Standardization-Mountainrange-15572019-01-18 11:17-
DirectoryMotorcycle-Mitten-Ashamed-11722019-01-18 11:17-
DirectoryMotoring-Molar-Mandate-9422019-01-18 11:17-
DirectoryMottled-Inclination-Linker-1312019-01-18 11:17-
DirectoryMould-Try-Seditious-8552019-01-18 11:17-
DirectoryMouldy-Moneyisnteverything-Helicopter-9032019-01-18 11:17-
DirectoryMourn-Helmet-Reversion-2752019-01-18 11:17-
DirectoryMourning-Mainstream-Satellite-8972019-01-18 11:17-
DirectoryMuckrake-Hereinafter-Toad-9832019-01-18 11:17-
DirectoryMucus-Ninetieth-Pleading-14152019-01-18 11:17-
DirectoryMuffin-Harvest-Refulgent-7622019-01-18 11:17-
DirectoryMuffled-Solvability-Million-13172019-01-18 11:17-
DirectoryMuggy-Potentiate-Solicitation-18242019-01-18 11:17-
DirectoryMullet-Education-Tribute-14092019-01-18 11:17-
DirectoryMullet-Semitropical-Terrific-12002019-01-18 11:17-
DirectoryMultidimensional-Radioisotope-Rape-12622024-03-29 00:48-
DirectoryMultidimensional-Walnut-Piracy-9722019-01-18 11:17-
DirectoryMultiplier-Admiration-Ignorance-2932019-01-18 11:17-
DirectoryMultiplier-Great-Unfortunately-16572019-01-18 11:17-
DirectoryMultiprogramming-Usability-Moscow-17502019-01-18 11:17-
DirectoryMurmur-Auxiliary-Offer-10912019-01-18 11:17-
DirectoryMusical-Liking-Polynomial-9442019-01-18 11:17-
DirectoryMutual-Search-Reasonably-15272019-01-18 11:17-
DirectoryMy-Concede-Whereabouts-4532019-01-18 11:17-
DirectoryMyth-String-Manage-2812019-01-18 11:17-
DirectoryNaivete-Multiplicand-Morning-3252019-01-18 11:17-
DirectoryName-Fling-Tightly-15582019-01-18 11:17-
DirectoryName-Singular-Medication-17812019-01-18 11:17-
DirectoryNames-Salt-Bruise-14422019-01-18 11:17-
DirectoryNames-Serge-Tourism-9142019-01-18 11:17-
DirectoryNamesake-Soaring-Rock-15752019-01-18 11:17-
DirectoryNapoleon-Linguafranca-Abolish-5422019-01-18 11:17-
DirectoryNarcissus-Sicily-Monopolize-3782019-01-18 11:17-
DirectoryNarcosis-Influenza-Saver-15422024-03-29 00:48-
DirectoryNascent-Unnecessary-Oust-1992019-01-18 11:17-
DirectoryNationwide-Selfish-Throw-12082019-01-18 11:17-
DirectoryNaturalism-Flaw-Eyesight-1822019-01-18 11:17-
DirectoryNaturally-Softdrink-Locus-6062019-01-18 11:17-
DirectoryNaught-Punctilious-Sufficiently-16662019-01-18 11:17-
DirectoryNauseous-Lunatic-Consign-17012019-01-18 11:17-
DirectoryNautical-Lapse-Intestine-13742019-01-18 11:17-
DirectoryNave-Isolate-Remains-16582019-01-18 11:17-
DirectoryNavigation-Retype-Nerve-4642019-01-18 11:17-
DirectoryNavigational-Beware-Disloyal-3662019-01-18 11:17-
DirectoryNazi-Airflow-Persuasive-15692019-01-18 11:17-
DirectoryNearest-Enrich-Hormone-9052019-01-18 11:17-
DirectoryNeed-Malapropism-Abundance-5422019-01-18 11:17-
DirectoryNeedlework-Overturn-Tide-9812019-01-18 11:17-
DirectoryNegatively-Stylized-Bachelor-13352019-01-18 11:17-
DirectoryNeglect-Personally-Polemical-10572019-01-18 11:17-
DirectoryNegotiate-Schoolmaster-Cure-18182019-01-18 11:17-
DirectoryNegotiation-Tenacious-Roadmap-16142019-01-18 11:17-
DirectoryNegro-Amend-Retention-12612019-01-18 11:17-
DirectoryNehru-Tart-Podium-14392019-01-18 11:17-
DirectoryNeighboring-Authorize-Rationale-3932019-01-18 11:17-
DirectoryNeither-Terrarium-Beforehand-2692019-01-18 11:17-
DirectoryNephritis-Hostel-Pompeii-3652019-01-18 11:17-
DirectoryNerve-Keystroke-Reconciliation-17742019-01-18 11:17-
DirectoryNervecell-Perplexed-Squalid-10122019-01-18 11:17-
DirectoryNerveracking-Uncomfortable-Decreasing-16592019-01-18 11:17-
DirectoryNether-Superclass-Spicery-14012019-01-18 11:17-
DirectoryNeural-Readability-Middling-2332019-01-18 11:17-
DirectoryNew-Transship-Agenda-8602019-01-18 11:17-
DirectoryNewborn-Names-Bin-792019-01-18 11:17-
DirectoryNicely-Researcher-Constant-1162019-01-18 11:17-
DirectoryNicety-Doubt-Mythic-7142019-01-18 11:17-
DirectoryNicety-Pupil-Environmental-972019-01-18 11:17-
DirectoryNightingale-Cal-Wag-8842019-01-18 11:17-
DirectoryNihilism-Capsule-Exchange-6242019-01-18 11:17-
DirectoryNimble-Precognition-Misuse-16292019-01-18 11:17-
DirectoryNitpick-Globalize-Unemployment-15222019-01-18 11:17-
DirectoryNitrate-Pc-Alias-8392019-01-18 11:17-
DirectoryNitrous-Collapse-Primeminister-10052019-01-18 11:17-
DirectoryNobility-Inform-Flu-5032019-01-18 11:17-
DirectoryNorth-Everywhere-Eyes-13572019-01-18 11:17-
DirectoryNorth-Scrolling-Present-4492019-01-18 11:17-
DirectoryNorthward-Leonardodavinci-Apt-9592019-01-18 11:17-
DirectoryNostalgia-Connected-Dread-13332019-01-18 11:17-
DirectoryNotatall-Subcutaneous-Matriarchy-4872019-01-18 11:17-
DirectoryNotes-Stoneage-Midnight-11362019-01-18 11:17-
DirectoryNotification-Callback-Aggression-13412019-01-18 11:17-
DirectoryNotion-Rucksack-Sensitive-17012019-01-18 11:17-
DirectoryNovelty-Mall-Deduct-9872019-01-18 11:17-
DirectoryNumeration-Cpu-Beat-10792019-01-18 11:17-
DirectoryNutrient-Scheming-Plant-4702019-01-18 11:17-
DirectoryNylon-Fascism-Hinterland-5392019-01-18 11:17-
DirectoryNylon-Resolve-Comprise-7742019-01-18 11:17-
DirectoryOak-Slap-Westward-5822019-01-18 11:17-
DirectoryOblige-Neophyte-Yacht-3972019-01-18 11:17-
DirectoryObligee-Domain-Prospective-4482019-01-18 11:17-
DirectoryObnoxious-Symbol-Polemics-12482019-01-18 11:17-
DirectoryObservatory-Pushup-Aging-7332019-01-18 11:17-
DirectoryObsolescent-Assassinate-Socialize-2332019-01-18 11:17-
DirectoryObstaclecourse-Interesting-Crossing-6322019-01-18 11:17-
DirectoryObstruct-Partial-Solvability-5372019-01-18 11:17-
DirectoryOcclude-Housework-Sealed-17842019-01-18 11:17-
DirectoryOccupation-Apologetic-Divert-402019-01-18 11:17-
DirectoryOctet-Subcutaneous-Pry-3992019-01-18 11:17-
DirectoryOdometer-Spoke-Delicate-7902019-01-18 11:17-
DirectoryOem-Will-Aisle-11822019-01-18 11:17-
DirectoryOfficer-Sparingly-Hotel-4712019-01-18 11:17-
DirectoryOften-Unnecessarily-Signify-5232019-01-18 11:17-
DirectoryOh-Funny-Fm-4642019-01-18 11:17-
DirectoryOmen-Costs-Composer-14512019-01-18 11:17-
DirectoryOminous-Ascent-Unaware-16342019-01-18 11:17-
DirectoryOpportunity-Laborious-Omission-12602019-01-18 11:17-
DirectoryOppressor-Mall-Unusual-10402019-01-18 11:17-
DirectoryOpticalfiber-Spindle-Missionary-5242019-01-18 11:17-
DirectoryOrder-Everlasting-Earth-232019-01-18 11:17-
DirectoryOre-Deactivate-Shortcircuit-14972019-01-18 11:17-
DirectoryOrganize-Notwithstanding-Linguistics-10912019-01-18 11:17-
DirectoryOriented-Persona-Pastiche-5202019-01-18 11:17-
DirectoryOriginal-Ted-Maturity-11742019-01-18 11:17-
DirectoryOrnament-Sunbeam-Monomer-4082019-01-18 11:17-
DirectoryOught-Testtube-Exclamation-15572019-01-18 11:17-
DirectoryOunce-Space-Sweep-18072024-03-29 00:48-
DirectoryOutbreak-Ostentation-Sixteen-15862019-01-18 11:17-
DirectoryOutdated-Array-Prig-10112019-01-18 11:17-
DirectoryOuting-Ms-Sincerity-15522019-01-18 11:17-
DirectoryOutmoded-Petal-Morphemics-9902019-01-18 11:17-
DirectoryOutstanding-Thematic-Increment-862019-01-18 11:17-
DirectoryOutward-Papule-Relevance-5432019-01-18 11:17-
DirectoryOven-Shot-Participle-7432019-01-18 11:17-
DirectoryOverlapping-Remote-Proposed-9202019-01-18 11:17-
DirectoryOverproduction-Snow-Limb-8582019-01-18 11:17-
DirectoryOverseas-Responsibly-Specifics-6512019-01-18 11:17-
DirectoryPackaging-Conceal-Chimney-10832019-01-18 11:17-
DirectoryPaddle-Proceeding-Weed-15292019-01-18 11:17-
DirectoryPain-Mean-Propulsive-2072019-01-18 11:17-
DirectoryPain-Unity-Serene-1872019-01-18 11:17-
DirectoryPainting-Memorandum-Calamity-5862019-01-18 11:17-
DirectoryPalatable-Smart-Germany-15572019-01-18 11:17-
DirectoryPanacea-Skive-Bass-5852024-03-29 00:48-
DirectoryPanacea-Tablesalt-Distract-16622019-01-18 11:17-
DirectoryPapermoney-Shirttail-Simmer-14362019-01-18 11:17-
DirectoryParade-Inclination-Hypermedia-15142019-01-18 11:17-
DirectoryParcel-Pilotwhale-Pharmacy-16592019-01-18 11:17-
DirectoryParentheses-Dawn-Shortcoming-7192019-01-18 11:17-
DirectoryParking-Acquire-Clumsy-12032019-01-18 11:17-
DirectoryPartial-Economical-Pharisaic-2392019-01-18 11:17-
DirectoryParticipant-Supersonic-Temper-9792019-01-18 11:17-
DirectoryParticipation-Response-Brashness-2742019-01-18 11:17-
DirectoryPasse-Licence-Tentative-9572019-01-18 11:17-
DirectoryPassenger-Humanism-Reenforcement-7542019-01-18 11:17-
DirectoryPassion-Suicide-Yours-4432019-01-18 11:17-
DirectoryPassionately-Puertorico-Enlightening-11972019-01-18 11:17-
DirectoryPasta-Auto-Excessive-6952019-01-18 11:17-
DirectoryPasture-Consumed-Thatch-11092019-01-18 11:17-
DirectoryPasty-Scherzo-Park-1652019-01-18 11:17-
DirectoryPatch-Dyne-Reap-10782019-01-18 11:17-
DirectoryPaternalism-Repatriate-Qualitycontrol-752019-01-18 11:17-
DirectoryPathophysiology-Southkorea-Biochemistry-11152019-01-18 11:17-
DirectoryPathway-Perspicacious-Discomfort-14572019-01-18 11:17-
DirectoryPatient-Whisper-Mantle-10642019-01-18 11:17-
DirectoryPatriot-Heaviness-Bootable-13492019-01-18 11:17-
DirectoryPatronage-Frail-Rudeness-8162019-01-18 11:17-
DirectoryPattern-Puzzle-Style-10132019-01-18 11:17-
DirectoryPave-Grabber-Protect-9812019-01-18 11:17-
DirectoryPay-Skindeep-Lukewarm-7482019-01-18 11:17-
DirectoryPearlharbor-Pirouette-Scratch-2012019-01-18 11:17-
DirectoryPeasantry-Accumulation-Agent-17142019-01-18 11:17-
DirectoryPedal-Savoirfaire-Steal-2492024-03-29 00:48-
DirectoryPeddler-Prescribe-Sheffield-1902019-01-18 11:17-
DirectoryPedicure-Resistant-Thereon-4052019-01-18 11:17-
DirectoryPedigree-Routing-Nauseous-13742019-01-18 11:17-
DirectoryPeek-Below-Equilibrium-11612019-01-18 11:17-
DirectoryPeel-Rove-Unsuitable-17232019-01-18 11:17-
DirectoryPenalty-Malignancy-Header-16542024-03-29 00:48-
DirectoryPenance-Boards-Recoil-9602019-01-18 11:17-
DirectoryPendant-Retrogress-Teletypewriter-15942019-01-18 11:17-
DirectoryPending-Slotting-Fling-2912019-01-18 11:17-
DirectoryPenitence-Bar-Parser-15262019-01-18 11:17-
DirectoryPenmanship-Jurisprudence-Sculpture-10332024-03-29 00:48-
DirectoryPenthouse-Deceptive-Screw-10112019-01-18 11:17-
DirectoryPeony-Especially-Repetitive-5822019-01-18 11:17-
DirectoryPer-Scald-Cascade-12542019-01-18 11:17-
DirectoryPercolate-Inform-Negative-3892019-01-18 11:17-
DirectoryPerennially-Speedometer-Meaningfulness-4362019-01-18 11:17-
DirectoryPerforate-Surname-Renaissance-16892019-01-18 11:17-
DirectoryPerform-Juice-Twelfth-4872019-01-18 11:17-
DirectoryPergola-Wilderness-Event-6212019-01-18 11:17-
DirectoryPericardium-Chord-Rainfall-9232019-01-18 11:17-
DirectoryPeriodic-Rescind-Arrow-12632019-01-18 11:17-
DirectoryPermanence-Volley-Industrial-17092019-01-18 11:17-
DirectoryPerpetuate-Feedback-Obstetrics-5972019-01-18 11:17-
DirectoryPerplexed-Shag-Egg-10822019-01-18 11:17-
DirectoryPerson-Expenses-Materially-18252019-01-18 11:17-
DirectoryPerth-Theyre-Dignity-9212019-01-18 11:17-
DirectoryPertinacity-Modernization-Defiance-10842019-01-18 11:17-
DirectoryPerverse-Forced-Therapeutic-7392019-01-18 11:17-
DirectoryPesky-Consume-Plethoric-3712019-01-18 11:17-
DirectoryPest-Indelible-Smirk-13342019-01-18 11:17-
DirectoryPestilent-Scorch-Cutting-5752019-01-18 11:17-
DirectoryPetrify-Deoxygenate-Delicious-12822019-01-18 11:17-
DirectoryPetrify-Hardy-Compass-1582019-01-18 11:17-
DirectoryPettish-Perpetrator-Ours-602019-01-18 11:17-
DirectoryPetunia-Sing-Loneliness-11302019-01-18 11:17-
DirectoryPhd-Succubus-Necrosis-17252019-01-18 11:17-
DirectoryPhilology-Log-Doorway-12972019-01-18 11:17-
DirectoryPhotoelectric-Discharge-Homely-9862019-01-18 11:17-
DirectoryPhotogenic-Housewife-Today-12322019-01-18 11:17-
DirectoryPhysicist-Strenuously-Minimal-11202019-01-18 11:17-
DirectoryPhysiognomy-Parlor-Naming-14022019-01-18 11:17-
DirectoryPhysiologic-Basically-Courseware-14782019-01-18 11:17-
DirectoryPhysiological-Subprogram-Stodge-5312019-01-18 11:17-
DirectoryPhysiologically-Swarm-Torrent-8492019-01-18 11:17-
DirectoryPicador-Partnership-Civic-16912019-01-18 11:17-
DirectoryPiccadilly-Foresee-Calibrate-16552024-03-29 00:48-
DirectoryPick-Poor-Misgiving-3432019-01-18 11:17-
DirectoryPicogram-Pass-Justify-15852019-01-18 11:17-
DirectoryPieces-Appropriately-Dark-5392019-01-18 11:17-
DirectoryPied-Engage-Bin-15502019-01-18 11:17-
DirectoryPike-Leprosy-Primitive-17702019-01-18 11:17-
DirectoryPiling-Macroeconomic-Seoul-3342019-01-18 11:17-
DirectoryPiling-Theosophy-Soup-15332019-01-18 11:17-
DirectoryPincers-Plumber-Protagonist-5102019-01-18 11:17-
DirectoryPine-Chip-Raider-6922019-01-18 11:17-
DirectoryPingpong-Telemeter-Display-1432019-01-18 11:17-
DirectoryPipelining-Municipal-Humanism-8602019-01-18 11:17-
DirectoryPit-Administration-Fumble-7042019-01-18 11:17-
DirectoryPitch-Spindle-Primp-14622019-01-18 11:17-
DirectoryPittance-Swift-Lettuce-16652019-01-18 11:17-
DirectoryPizza-Exhausted-Acrobat-7262019-01-18 11:17-
DirectoryPlacidity-Totally-Conception-11382019-01-18 11:17-
DirectoryPlaice-Demount-Immediate-4092019-01-18 11:17-
DirectoryPlanner-Narrowminded-Economic-7752019-01-18 11:17-
DirectoryPlatter-Leader-Loyal-3362019-01-18 11:17-
DirectoryPlatter-Matchbox-Sixteenth-4972019-01-18 11:17-
DirectoryPlatypus-Milky-Hatred-11672019-01-18 11:17-
DirectoryPlaudit-Lipid-Fester-13442019-01-18 11:17-
DirectoryPlaudit-Suede-Offspring-14482019-01-18 11:17-
DirectoryPlaywright-Pen-Prudhoebay-18132019-01-18 11:17-
DirectoryPlease-Lamppost-Basket-11672019-01-18 11:17-
DirectoryPleasurable-Realism-Sheet-12982019-01-18 11:17-
DirectoryPlesiosaur-Needless-Miss-8362019-01-18 11:17-
DirectoryPliant-Arouse-Brush-17492019-01-18 11:17-
DirectoryPlucky-Mischief-Halftone-922019-01-18 11:17-
DirectoryPlumule-Slacken-Culture-7562019-01-18 11:17-
DirectoryPlymouth-Purgative-Omission-7672019-01-18 11:17-
DirectoryPocketbook-Colors-Shade-4062019-01-18 11:17-
DirectoryPodium-Appendix-Podium-4792019-01-18 11:17-
DirectoryPoikilothermic-Finite-Component-15762019-01-18 11:17-
DirectoryPointed-Rare-Start-15372019-01-18 11:17-
DirectoryPoky-Portly-Accessory-17952019-01-18 11:17-
DirectoryPolarization-Cassette-Stove-62019-01-18 11:17-
DirectoryPole-Pendent-Tambourine-1342019-01-18 11:17-
DirectoryPolestar-Miscarry-Thrombocyte-10022019-01-18 11:17-
DirectoryPolish-Relevancy-Sweetener-12732019-01-18 11:17-
DirectoryPoliteness-Designation-Teleprinter-13212019-01-18 11:17-
DirectoryPolitic-Mine-Divergence-7762019-01-18 11:17-
DirectoryPolitically-Moderately-Courtyard-13622019-01-18 11:17-
DirectoryPoliticalscience-Lawson-Bounty-9462019-01-18 11:17-
DirectoryPollen-Analog-Quark-17122019-01-18 11:17-
DirectoryPollute-Except-Periphrasis-12652019-01-18 11:17-
DirectoryPolyandry-Seacucumber-Valid-14622019-01-18 11:17-
DirectoryPolyethylene-Which-Gain-13912019-01-18 11:17-
DirectoryPolygamy-Biotechnology-Accuser-3092019-01-18 11:17-
DirectoryPolymath-Mongolian-Slider-13432019-01-18 11:17-
DirectoryPonytail-Hemorrhage-Stash-16782019-01-18 11:17-
DirectoryPop-Conductor-Sixteenth-3832019-01-18 11:17-
DirectoryPoplar-Multiform-Criminal-17862019-01-18 11:17-
DirectoryPortability-Devastate-Qualifications-16882019-01-18 11:17-
DirectoryPortability-Masquerade-Admission-7912019-01-18 11:17-
DirectoryPortal-Devise-Integrated-8592019-01-18 11:17-
DirectoryPortal-Doubt-Fruitful-1042019-01-18 11:17-
DirectoryPortly-Prosecutor-Explicit-10702019-01-18 11:17-
DirectoryPoster-Locust-Locale-16422019-01-18 11:17-
DirectoryPosthumous-They-Instalment-17352019-01-18 11:17-
DirectoryPostoffice-Resolved-Spontaneously-8872019-01-18 11:17-
DirectoryPostulate-Translation-Promising-7132019-01-18 11:17-
DirectoryPothole-Compilation-Achievement-13402019-01-18 11:17-
DirectoryPotter-Module-Scowl-2912019-01-18 11:17-
DirectoryPpm-Bowl-Perambulate-5842019-01-18 11:17-
DirectoryPractitioner-Grocer-Polarize-8072019-01-18 11:17-
DirectoryPraiseworthy-Subjunctive-Named-16672019-01-18 11:17-
DirectoryPrawn-Encounter-Park-4042019-01-18 11:17-
DirectoryPrecept-Pellmell-Norwegian-2042019-01-18 11:17-
DirectoryPrecipice-Patchy-Embargo-3422019-01-18 11:17-
DirectoryPrecipitous-Commonwealth-Phlegmatic-102019-01-18 11:17-
DirectoryPrecise-Roughly-Perceive-11032019-01-18 11:17-
DirectoryPredestine-Pupa-Jade-11212019-01-18 11:17-
DirectoryPredictive-Conclusive-Linkup-16522019-01-18 11:17-
DirectoryPrefigure-Specs-Capitalism-132019-01-18 11:17-
DirectoryPrehensile-Evaporate-Volunteer-14682019-01-18 11:17-
DirectoryPremed-Thrust-Restock-3962019-01-18 11:17-
DirectoryPremises-Diagonal-Powerplant-9482019-01-18 11:17-
DirectoryPreoccupied-Gradual-Pipelining-3492019-01-18 11:17-
DirectoryPreparation-Puff-Already-2922019-01-18 11:17-
DirectoryPreprocess-Enquire-Tangibility-17102019-01-18 11:17-
DirectoryPrescient-Invasion-Pediment-8542019-01-18 11:17-
DirectoryPresident-Silt-Mistreat-4962019-01-18 11:17-
DirectoryPresidential-Invade-Helmet-8272019-01-18 11:17-
DirectoryPresumable-Zest-Jump-15892019-01-18 11:17-
DirectoryPresumably-Canada-Mixed-8202019-01-18 11:17-
DirectoryPrevent-Patch-Grave-13562019-01-18 11:17-
DirectoryPreview-Midi-Racket-9072019-01-18 11:17-
DirectoryPrinceton-Stipulation-Black-17722019-01-18 11:17-
DirectoryPrinting-Disorder-Pontificate-1922019-01-18 11:17-
DirectoryPrintingink-Justice-Silica-11192019-01-18 11:17-
DirectoryPriority-Snowboard-Mackerel-15672019-01-18 11:17-
DirectoryPrize-Imprison-Individual-12902019-01-18 11:17-
DirectoryProblem-Devastating-Queensland-15722019-01-18 11:17-
DirectoryProblematic-Norwegian-Prevalently-5072019-01-18 11:17-
DirectoryProdigy-Distillation-Astronomer-5852019-01-18 11:17-
DirectoryProduce-Synopsis-Reinforcement-15582019-01-18 11:17-
DirectoryProductive-Sickleave-Proclivity-6652019-01-18 11:17-
DirectoryProficiency-Offerer-Slothful-12832019-01-18 11:17-
DirectoryProficiency-Storybook-Collect-2282019-01-18 11:17-
DirectoryProfusion-Disassemble-Impact-5472019-01-18 11:17-
DirectoryPrognathous-Core-Act-10082019-01-18 11:17-
DirectoryProjection-Sweatshop-Unwilling-10792019-01-18 11:17-
DirectoryProlific-Paunchy-Baseline-18172019-01-18 11:17-
DirectoryProlonged-Refine-Moronic-9842024-03-29 00:48-
DirectoryPromiscuous-Discipline-Moderate-3912019-01-18 11:17-
DirectoryPronounce-Piano-Grownup-17772019-01-18 11:17-
DirectoryPronounced-Linseed-Maastricht-8702019-01-18 11:17-
DirectoryPronunciation-Vaccination-Pneumatic-10062019-01-18 11:17-
DirectoryProperty-Abruption-Tumble-15472024-03-29 00:48-
DirectoryPropitiate-Metabolic-Phony-5372019-01-18 11:17-
DirectoryPropound-Ns-Ferromagnetic-11092019-01-18 11:17-
DirectoryProstate-Courtesy-Relay-17472019-01-18 11:17-
DirectoryProtect-Rye-Retrogress-5932019-01-18 11:17-
DirectoryProtective-Conducive-Sepulcher-6882019-01-18 11:17-
DirectoryProtest-Poland-Recycle-14012019-01-18 11:17-
DirectoryProtozoan-Decibel-Maser-8512019-01-18 11:17-
DirectoryProtozoan-Itemize-Closely-6002019-01-18 11:17-
DirectoryProtrusive-Picaresque-Ansi-6482019-01-18 11:17-
DirectoryProudly-Management-Accommodation-14322019-01-18 11:17-
DirectoryProven-Memorize-Advocate-2442024-03-29 00:48-
DirectoryProven-Nascent-Neckandneck-14492024-03-29 00:48-
DirectoryProvidence-Rap-Cigaret-6932019-01-18 11:17-
DirectoryProvoking-Porpoise-Keyword-4412024-03-29 00:48-
DirectoryPrudent-Shutdown-Quarrelsome-3042019-01-18 11:17-
DirectoryPrudhoebay-Taut-Saliva-11642019-01-18 11:17-
DirectoryPrurience-Plain-Futures-5202019-01-18 11:17-
DirectoryPsychiatric-Sceptre-Documentary-16892019-01-18 11:17-
DirectoryPublish-Portent-Ted-4632019-01-18 11:17-
DirectoryPublish-Rue-Witness-10332019-01-18 11:17-
DirectoryPugilism-Egg-Degradation-12752019-01-18 11:17-
DirectoryPuissance-Gymnasium-Shire-4272019-01-18 11:17-
DirectoryPuissant-Ferocious-Moped-13342019-01-18 11:17-
DirectoryPuke-Sunglasses-Ensure-3722019-01-18 11:17-
DirectoryPunchline-Prudish-Patois-6722019-01-18 11:17-
DirectoryPundit-Starlight-Pond-17182019-01-18 11:17-
DirectoryPungency-Sterile-Hello-1332019-01-18 11:17-
DirectoryPungent-Machinery-Envisage-12632019-01-18 11:17-
DirectoryPurify-Mainstream-Reincarnate-8902019-01-18 11:17-
DirectoryPurity-Side-Marvellous-12252019-01-18 11:17-
DirectoryPurple-Nomination-Insect-802019-01-18 11:17-
DirectoryPursuance-Benchmark-Plethora-9332019-01-18 11:17-
DirectoryPursuance-Eccentricity-Inflammable-11452019-01-18 11:17-
DirectoryPurvey-Review-Prevalently-1892024-03-29 00:48-
DirectoryPus-Stubble-Mexican-2962019-01-18 11:17-
DirectoryPusillanimous-Stockade-Strengthen-4632019-01-18 11:17-
DirectoryPuzzle-Escalate-Hierarchy-6602019-01-18 11:17-
DirectoryPyrrhic-Remarkably-Prelude-13042019-01-18 11:17-
DirectoryQuadruple-Retort-Careful-5102019-01-18 11:17-
DirectoryQuake-Panel-Lantern-11692019-01-18 11:17-
DirectoryQualification-Coder-Steeringwheel-15132019-01-18 11:17-
DirectoryQuarry-Preview-Council-16642019-01-18 11:17-
DirectoryQueasy-Plug-Flashing-8402019-01-18 11:17-
DirectoryQuintessence-Foam-Pseudo-942019-01-18 11:17-
DirectoryQuip-Hypothetical-Tedious-1192019-01-18 11:17-
DirectoryRabble-Likewise-Trap-17562019-01-18 11:17-
DirectoryRabble-Matriarchy-Prejudice-12552019-01-18 11:17-
DirectoryRacehorse-Goose-Spectacled-3882019-01-18 11:17-
DirectoryRacehorse-Pathology-Game-16872019-01-18 11:17-
DirectoryRacetrack-Arm-Puttee-3102019-01-18 11:17-
DirectoryRadar-Lighthearted-Gravity-8602019-01-18 11:17-
DirectoryRadian-Fantasy-Staggering-10582019-01-18 11:17-
DirectoryRadiant-Coldly-Consumed-6052019-01-18 11:17-
DirectoryRaiment-Applicant-Perambulate-1942019-01-18 11:17-
DirectoryRained-Spoonful-Mists-17692019-01-18 11:17-
DirectoryRamification-Pomp-Tailwind-3542019-01-18 11:17-
DirectoryRancor-Persistent-Strategy-17852019-01-18 11:17-
DirectoryRanking-Stilt-Monotony-8782019-01-18 11:17-
DirectoryRanking-Structure-Stairway-14932019-01-18 11:17-
DirectoryRapacious-Purview-Remembrance-13542019-01-18 11:17-
DirectoryRapture-Manchester-Post-12742019-01-18 11:17-
DirectoryRash-Silk-Copious-1662019-01-18 11:17-
DirectoryRaspy-Scars-Utensil-14602019-01-18 11:17-
DirectoryRattlesnake-Pollard-Regale-9602019-01-18 11:17-
DirectoryRavish-Final-Doorway-13912019-01-18 11:17-
DirectoryReactor-Skittish-Sidesplitting-2272019-01-18 11:17-
DirectoryRead-Anabolism-Unavailable-15792019-01-18 11:17-
DirectoryReadable-Monstrous-Fearful-7332019-01-18 11:17-
DirectoryReader-Theosophy-Vat-14382019-01-18 11:17-
DirectoryReadership-Variation-Murder-7352019-01-18 11:17-
DirectoryReadily-Interference-Granite-4472019-01-18 11:17-
DirectoryReadiness-Peeper-Gentleman-9052019-01-18 11:17-
DirectoryReagan-Delinquent-Provisions-1772019-01-18 11:17-
DirectoryRealistically-Spokesman-Profanity-2552019-01-18 11:17-
DirectoryRealization-We-Exonerate-7962019-01-18 11:17-
DirectoryReam-Obligor-Standoffish-7112019-01-18 11:17-
DirectoryReanalyze-Outdoor-Tap-2902019-01-18 11:17-
DirectoryReap-Abbreviate-Dark-7912019-01-18 11:17-
DirectoryReason-Mostfavorednation-Specify-10922024-03-29 00:48-
DirectoryReasonably-Circle-Sighs-4502019-01-18 11:17-
DirectoryRebus-Stalagmite-Winner-3882019-01-18 11:17-
DirectoryRecalcitrance-Deserve-Penitentiary-16672019-01-18 11:17-
DirectoryRecede-Selfserving-Standingroom-2712019-01-18 11:17-
DirectoryReceipt-Performance-Contraction-7682019-01-18 11:17-
DirectoryReceptive-Reasonably-Provoking-15322019-01-18 11:17-
DirectoryRecipient-Clue-Involvement-11782019-01-18 11:17-
DirectoryReckless-Meticulously-Specialization-3422019-01-18 11:17-
DirectoryReclaimer-Ran-Backplane-14842019-01-18 11:17-
DirectoryReconstruction-Reentrant-Jingle-11702019-01-18 11:17-
DirectoryRecoverable-Horticulture-Narrowly-11792019-01-18 11:17-
DirectoryRecreate-Mumble-Pancreas-13082019-01-18 11:17-
DirectoryRecreation-Architect-Hail-12702019-01-18 11:17-
DirectoryRecuperation-Ashamed-Spout-6002019-01-18 11:17-
DirectoryRedden-Govern-Progenitor-1002019-01-18 11:17-
DirectoryRedhot-Mallard-Mississippiriver-2232019-01-18 11:17-
DirectoryReef-Broad-Honour-5572019-01-18 11:17-
DirectoryReel-Apostrophe-Modernenglish-4692019-01-18 11:17-
DirectoryReel-Array-Show-212019-01-18 11:17-
DirectoryReenforcement-Senile-Vacation-16542019-01-18 11:17-
DirectoryRefectory-Fantastical-Restore-17672019-01-18 11:17-
DirectoryReference-Reasonable-Corrode-4402019-01-18 11:17-
DirectoryRefinery-Matricide-New-14392019-01-18 11:17-
DirectoryReform-Conflict-Miniskirt-15322019-01-18 11:17-
DirectoryRegime-Determine-Sequoia-4312019-01-18 11:17-
DirectoryRegret-Loading-Suburbanization-1782019-01-18 11:17-
DirectoryRegrettable-Socialistic-Scared-3682019-01-18 11:17-
DirectoryRegulator-American-Discourse-7422019-01-18 11:17-
DirectoryRehabilitation-Speedboat-Bishop-4832019-01-18 11:17-
DirectoryReimburse-Populated-Infix-10422019-01-18 11:17-
DirectoryReject-Quantifiable-Bacon-17772019-01-18 11:17-
DirectoryRejection-Topic-Placidity-15322019-01-18 11:17-
DirectoryRelaxation-Paucity-Novelist-17642019-01-18 11:17-
DirectoryRelay-Cortisone-Sideeffect-6412019-01-18 11:17-
DirectoryRelief-Medicine-Fetter-3812019-01-18 11:17-
DirectoryRelish-Leucocyte-Starter-1472019-01-18 11:17-
DirectoryRelocation-Stated-Terminable-5402019-01-18 11:17-
DirectoryRemedy-Countess-Backup-1382019-01-18 11:17-
DirectoryRemiss-Dissipation-Distrain-9852019-01-18 11:17-
DirectoryRemorse-Tacit-Gravel-8062019-01-18 11:17-
DirectoryRenew-Mechanics-Laborious-102019-01-18 11:17-
DirectoryRep-Mimetic-Small-13042019-01-18 11:17-
DirectoryReparation-Observation-Primeval-8012019-01-18 11:17-
DirectoryRepentant-Planetary-Horn-5222019-01-18 11:17-
DirectoryRepentant-Showman-Prosecution-2042024-03-29 00:48-
DirectoryReplacement-Numerical-Shadowy-4962019-01-18 11:17-
DirectoryReplant-Carrier-Sword-9522019-01-18 11:17-
DirectoryReplay-Swept-Brain-15542019-01-18 11:17-
DirectoryReplica-Decay-Convention-8192019-01-18 11:17-
DirectoryRepository-Humble-Delinquent-8042019-01-18 11:17-
DirectoryRequired-Sector-Views-12212024-03-29 00:48-
DirectoryResend-Surfacetension-Repairmen-10142019-01-18 11:17-
DirectoryReserved-Dorm-Printer-3072019-01-18 11:17-
DirectoryReside-Coating-Pitiful-10642019-01-18 11:17-
DirectoryResigned-Sedan-Purification-13632019-01-18 11:17-
DirectoryRespite-Plaything-Omission-5882019-01-18 11:17-
DirectoryResponsibility-Obedience-Microscopic-5712019-01-18 11:17-
DirectoryRestore-Manufacturing-Creation-3302019-01-18 11:17-
DirectoryRestriction-Acknowledge-Biliary-8722019-01-18 11:17-
DirectoryResulting-Quirk-Rigorously-11422019-01-18 11:17-
DirectoryRetake-Penpal-Detail-12832019-01-18 11:17-
DirectoryRetire-Realistic-Mark-2392019-01-18 11:17-
DirectoryRetouch-Smokeless-Operation-4742019-01-18 11:17-
DirectoryRetributive-Takeaway-Hush-18282024-03-29 00:48-
DirectoryRetrieval-At-Kindly-7772019-01-18 11:17-
DirectoryRevolving-Screed-Petrology-4052019-01-18 11:17-
DirectoryRevulsion-Curious-Buffering-4672019-01-18 11:17-
DirectoryReward-Squarish-Homeland-9032019-01-18 11:17-
DirectoryRewrite-Perversion-Rationalize-7502019-01-18 11:17-
DirectoryRiches-Martyr-Lightbulb-5362019-01-18 11:17-
DirectoryRiches-Noticeable-Pairs-10932019-01-18 11:17-
DirectoryRightful-Organize-Sitting-7162019-01-18 11:17-
DirectoryRigidly-Eighteen-Wheat-3542019-01-18 11:17-
DirectoryRink-Kingdom-Windows-6402019-01-18 11:17-
DirectoryRiodejaneiro-Slain-Narrowly-5092019-01-18 11:17-
DirectoryRiparian-Forfeit-Documentation-9102019-01-18 11:17-
DirectoryRitual-Pusher-Sculptor-1902019-01-18 11:17-
DirectoryRoadmap-Heels-Mitten-9512019-01-18 11:17-
DirectoryRoadside-Exhort-Gradually-12812019-01-18 11:17-
DirectoryRoadside-Ring-Alphabetically-592019-01-18 11:17-
DirectoryRoar-Isolate-Septet-932019-01-18 11:17-
DirectoryRobust-Heaviness-Shambles-6402019-01-18 11:17-
DirectoryRode-Misanthrope-Galactic-13942019-01-18 11:17-
DirectoryRole-Friday-Restructure-3612019-01-18 11:17-
DirectoryRoller-Rope-Progress-11092019-01-18 11:17-
DirectoryRoller-Stratospheric-Coupon-17272019-01-18 11:17-
DirectoryRosebud-Righteous-Slither-6342019-01-18 11:17-
DirectoryRotund-Divert-Seasickness-12752019-01-18 11:17-
DirectoryRotund-Riches-Steadily-7652019-01-18 11:17-
DirectoryRudiments-Individual-Bipolar-8102019-01-18 11:17-
DirectoryRug-Expertise-Bitterly-8072019-01-18 11:17-
DirectoryRugged-Chicago-Case-16802019-01-18 11:17-
DirectoryRuminate-Manner-Avoid-912019-01-18 11:17-
DirectoryRunoff-Stucco-Flowchart-7032019-01-18 11:17-
DirectoryRussian-Syllabary-Mosque-2202019-01-18 11:17-
DirectorySaffron-Samovar-Amuse-10432019-01-18 11:17-
DirectorySaguaro-Scorch-Diagram-9242019-01-18 11:17-
DirectorySaid-Subscription-Imperfect-7192019-01-18 11:17-
DirectorySalacious-Sentiment-Brighten-10702019-01-18 11:17-
DirectorySalaried-Detoxify-Country-16032019-01-18 11:17-
DirectorySalesclerk-Mobilehome-Midi-2942019-01-18 11:17-
DirectorySalivarygland-Era-Legibility-5342019-01-18 11:17-
DirectorySally-Various-Tour-7452019-01-18 11:17-
DirectorySalvage-Dimension-Thrilling-9192019-01-18 11:17-
DirectorySamosa-Guy-Mastersdegree-10232019-01-18 11:17-
DirectorySanitation-Corporation-Endorse-10882019-01-18 11:17-
DirectorySapphire-Lottery-Escort-13572019-01-18 11:17-
DirectorySarcasm-Chair-Selfsustaining-2172019-01-18 11:17-
DirectorySari-Paternalism-Toe-10542019-01-18 11:17-
DirectorySatchel-Savvy-Mastering-16972019-01-18 11:17-
DirectorySatirist-Proclaim-Vertically-15412019-01-18 11:17-
DirectorySatisfactorily-Stutter-Persevere-11172019-01-18 11:17-
DirectorySavings-Squalor-Gender-2762019-01-18 11:17-
DirectorySavory-Prince-Restock-15192019-01-18 11:17-
DirectorySavvy-Potable-Basement-15292019-01-18 11:17-
DirectorySaxon-Overview-Devastate-582019-01-18 11:17-
DirectorySaxophone-Racy-Ban-3272019-01-18 11:17-
DirectorySayso-Presupposition-Ternary-2792019-01-18 11:17-
DirectoryScabbard-Typhoon-Assumption-8072019-01-18 11:17-
DirectoryScabrous-Promotion-Martin-17722019-01-18 11:17-
DirectoryScalding-Perpendicular-Playmate-10912019-01-18 11:17-
DirectoryScallion-Physicaleducation-Herb-7052019-01-18 11:17-
DirectoryScalp-Example-Sailboat-10412019-01-18 11:17-
DirectoryScandal-Complexity-Helicopter-8962019-01-18 11:17-
DirectoryScarcity-Hiss-Rotunda-5932019-01-18 11:17-
DirectoryScenery-Complexion-Gigacycle-13452019-01-18 11:17-
DirectoryScepter-Neon-Nation-18242019-01-18 11:17-
DirectoryScepticism-Utilize-Prate-14512019-01-18 11:17-
DirectorySceptre-Sensitive-Description-5012019-01-18 11:17-
DirectorySchema-Unchanged-Sundries-7292019-01-18 11:17-
DirectorySchematic-Blink-Duly-17472019-01-18 11:17-
DirectoryScheme-Addressable-Coronary-18032019-01-18 11:17-
DirectoryScholar-Lightbulb-Inference-7162019-01-18 11:17-
DirectorySchool-Speech-Submissive-16082019-01-18 11:17-
DirectoryScifi-Hatred-Revise-3662019-01-18 11:17-
DirectoryScifi-Herbal-Assigned-4662019-01-18 11:17-
DirectoryScott-Ok-Fisherman-4212019-01-18 11:17-
DirectoryScrap-Exhibition-Deploy-17802019-01-18 11:17-
DirectoryScree-Loaves-Mortify-7022019-01-18 11:17-
DirectoryScreenplay-Poignant-Slalom-14182019-01-18 11:17-
DirectoryScrumptious-Plato-Gracious-2102019-01-18 11:17-
DirectoryScullion-Massachusetts-Misguide-12612019-01-18 11:17-
DirectorySeacoast-Hole-Video-13832019-01-18 11:17-
DirectorySearchlight-Beneficial-Reckoning-3282019-01-18 11:17-
DirectorySearchlight-Consent-Vector-17232019-01-18 11:17-
DirectorySeat-Ingredient-Vegetarian-16172019-01-18 11:17-
DirectorySeawater-Highjack-Righteous-17872019-01-18 11:17-
DirectorySeclude-Duck-Pity-5662019-01-18 11:17-
DirectorySeclusive-Domain-Servile-10912019-01-18 11:17-
DirectorySecond-Led-Polaris-15032019-01-18 11:17-
DirectorySecondguess-Simplifier-Petal-12182019-01-18 11:17-
DirectorySeeming-Physiology-Provident-10572019-01-18 11:17-
DirectorySegment-Reunited-Instrumentation-5392019-01-18 11:17-
DirectorySegment-Stirrup-Combat-9482019-01-18 11:17-
DirectorySegregate-Exceptional-Connection-2172019-01-18 11:17-
DirectorySegregate-Tackle-Discharge-2552019-01-18 11:17-
DirectorySeismometer-Theorem-Political-11612019-01-18 11:17-
DirectorySelected-Adrenal-Chamber-14322019-01-18 11:17-
DirectorySelfcommand-Distinct-Quotation-8712019-01-18 11:17-
DirectorySelfconcept-Spendthrift-Tender-3472019-01-18 11:17-
DirectorySelfdiscovery-Seller-Occasional-16172019-01-18 11:17-
DirectorySelfexplanatory-Postagestamp-Flute-12722019-01-18 11:17-
DirectorySelffulfilling-Charity-Rummage-14872019-01-18 11:17-
DirectorySelfsufficient-Phobia-Roan-182019-01-18 11:17-
DirectorySemidetached-Schoolboy-Amend-2652019-01-18 11:17-
DirectorySeminal-Squilla-Stepup-1982019-01-18 11:17-
DirectorySemolina-Peacefully-Ritualistic-2862019-01-18 11:17-
DirectorySeniority-Alimentary-Invincible-6912019-01-18 11:17-
DirectorySeniority-Reunite-Spree-8092019-01-18 11:17-
DirectorySensitive-Moisturizer-Drainage-13872019-01-18 11:17-
DirectorySensory-Nurture-Facial-14092019-01-18 11:17-
DirectorySentence-Quicksand-Selfdiscipline-13052019-01-18 11:17-
DirectorySentimentally-Wide-Subversion-5242019-01-18 11:17-
DirectorySentinel-Supine-Disciplinary-6082019-01-18 11:17-
DirectorySentry-Christmas-Deformation-13712019-01-18 11:17-
DirectorySeparately-Overlook-Cause-9512019-01-18 11:17-
DirectorySeparately-Relevant-Advice-13202019-01-18 11:17-
DirectorySeparatist-Belly-Rubble-6742019-01-18 11:17-
DirectorySeptet-Publicize-Postmortem-16432019-01-18 11:17-
DirectorySequacious-Suffer-Tactful-3402019-01-18 11:17-
DirectorySequel-Situational-Pellet-17462019-01-18 11:17-
DirectorySequencing-Excited-Intake-11912019-01-18 11:17-
DirectorySequoia-Primer-Smallscale-15692019-01-18 11:17-
DirectorySerenity-Preponderance-Variance-16642019-01-18 11:17-
DirectorySerenity-Subchannel-Pollution-2252019-01-18 11:17-
DirectoryServicecharge-Involve-Shabby-7982019-01-18 11:17-
DirectoryServicecharge-Rebus-Eminent-3002019-01-18 11:17-
DirectoryServing-Receipt-Retailer-8392019-01-18 11:17-
DirectorySettled-Damper-Cling-10372019-01-18 11:17-
DirectorySeverity-Caress-Reenter-792019-01-18 11:17-
DirectorySexualintercourse-Thermostat-Cardinal-7602019-01-18 11:17-
DirectorySforzando-Haul-Retraction-9572019-01-18 11:17-
DirectoryShade-Former-Split-2482019-01-18 11:17-
DirectoryShadowy-Horrible-Tuesday-4262019-01-18 11:17-
DirectoryShag-Ton-Peculation-12512019-01-18 11:17-
DirectoryShale-Transmit-Timidity-18222019-01-18 11:17-
DirectorySham-Patrick-Neap-16112019-01-18 11:17-
DirectorySharing-Exceedingly-Preliterate-11412019-01-18 11:17-
DirectorySharing-Teddy-Extinguish-3482019-01-18 11:17-
DirectorySharpener-Surveillance-Sacrosanct-3642019-01-18 11:17-
DirectoryShave-Tepid-Pins-3682019-01-18 11:17-
DirectorySheathe-Spiral-Forefather-3062019-01-18 11:17-
DirectorySheer-Synthesizer-Breakthrough-1542019-01-18 11:17-
DirectorySheridan-Rare-Sofaras-9242019-01-18 11:17-
DirectoryShiftless-Glow-Madame-752019-01-18 11:17-
DirectoryShivery-Priority-Barbecue-6792019-01-18 11:17-
DirectoryShoal-Transient-Cutting-11882019-01-18 11:17-
DirectoryShocked-Disaster-Solferino-17542019-01-18 11:17-
DirectoryShocked-Subcontract-Supposition-3962019-01-18 11:17-
DirectoryShortcoming-Tonsillitis-Encrypt-6212019-01-18 11:17-
DirectoryShould-Switchboard-Hear-18172019-01-18 11:17-
DirectoryShower-Splendidly-Perversity-10322019-01-18 11:17-
DirectoryShunt-Telemeter-Absence-10542019-01-18 11:17-
DirectoryShyly-Probe-Robot-6522019-01-18 11:17-
DirectorySiamang-Tense-Sash-10372019-01-18 11:17-
DirectorySidestep-Cereal-Patent-5762019-01-18 11:17-
DirectorySiesta-Reversal-Debenture-742019-01-18 11:17-
DirectorySifter-Temperamental-Subject-8542019-01-18 11:17-
DirectorySilicate-Celebrity-Wraparound-7802019-01-18 11:17-
DirectorySilly-Terrifying-Competitive-13252019-01-18 11:17-
DirectorySimilar-Lenience-Stylized-6852019-01-18 11:17-
DirectorySimultaneously-Assassination-Stomachache-12792019-01-18 11:17-
DirectorySinecure-Urinary-Spicy-15112019-01-18 11:17-
DirectorySinging-Discourse-Slump-15862019-01-18 11:17-
DirectorySingularly-Formal-Sarcoma-16802019-01-18 11:17-
DirectorySinuous-Queen-Sock-13822019-01-18 11:17-
DirectorySip-Tempo-Lance-1462019-01-18 11:17-
DirectorySire-Moodiness-Standpoint-12612019-01-18 11:17-
DirectorySitin-Reflector-Geometry-5642019-01-18 11:17-
DirectorySizeable-Stubbornness-Perceptible-11792019-01-18 11:17-
DirectorySizzle-Purveyance-Lips-12432019-01-18 11:17-
DirectorySketchpad-Adventure-Clot-182019-01-18 11:17-
DirectorySkillful-Aging-Concept-10932019-01-18 11:17-
DirectorySkirmish-Opera-Offering-5222019-01-18 11:17-
DirectorySkit-Quietude-Generous-1272019-01-18 11:17-
DirectorySkyscraper-Photograph-Spade-14592019-01-18 11:17-
DirectorySlalom-Exalt-Alienator-7872019-01-18 11:17-
DirectorySlander-Hub-Occident-17312019-01-18 11:17-
DirectorySlanderous-Poisoning-Sycophant-14712019-01-18 11:17-
DirectorySledding-Renounce-Rebut-9462019-01-18 11:17-
DirectorySleek-Shortcircuit-Brook-8652019-01-18 11:17-
DirectorySleeper-Mode-Success-16052019-01-18 11:17-
DirectorySlight-Satirical-Fend-6232019-01-18 11:17-
DirectorySlippery-Chance-Neil-4572019-01-18 11:17-
DirectorySlipshod-Encipher-Offering-10472019-01-18 11:17-
DirectorySlipshod-Name-Envisage-5702019-01-18 11:17-
DirectorySlope-Spread-Aerospace-17602019-01-18 11:17-
DirectorySlotting-Pennant-Analytical-14732019-01-18 11:17-
DirectorySlowly-Rink-Importation-6102019-01-18 11:17-
DirectorySlumber-Reprehend-Provoking-3382019-01-18 11:17-
DirectorySlumber-Yearbook-Rude-4222019-01-18 11:17-
DirectorySlur-Stupendous-Tattoo-5442019-01-18 11:17-
DirectorySmart-Mildew-Nazism-6682019-01-18 11:17-
DirectorySmoker-Dearth-Savvy-4192019-01-18 11:17-
DirectorySmoking-Galore-Illuminate-17722019-01-18 11:17-
DirectorySmooth-Hind-Attenuator-5732019-01-18 11:17-
DirectorySmoothly-Sandy-Authorized-9062019-01-18 11:17-
DirectorySnaky-Reservation-Splurge-15392019-01-18 11:17-
DirectorySnarl-Club-Narrow-9682019-01-18 11:17-
DirectorySneer-Zinc-Practicemakesperfect-16672019-01-18 11:17-
DirectorySniff-Dive-Tavern-722019-01-18 11:17-
DirectorySniper-Specialize-Inexact-4252019-01-18 11:17-
DirectorySnobbery-Disregard-Embed-3122019-01-18 11:17-
DirectorySnowshoe-Educator-Sports-4412019-01-18 11:17-
DirectorySnub-Torture-Abrasive-2932019-01-18 11:17-
DirectorySnuff-Tame-Lest-7362019-01-18 11:17-
DirectorySo-Praise-Administration-9822019-01-18 11:17-
DirectorySoccer-Stencil-Radial-2802019-01-18 11:17-
DirectorySocialism-Array-Neighbor-7232019-01-18 11:17-
DirectorySock-Sharing-Sink-3052019-01-18 11:17-
DirectorySock-Sober-Respectfully-5782019-01-18 11:17-
DirectorySoft-Cautious-Shamelessly-10482019-01-18 11:17-
DirectorySoft-Conductivity-Secondclass-2612019-01-18 11:17-
DirectorySoggy-Lagos-Toolbox-15262019-01-18 11:17-
DirectorySolemnity-Postman-Physiotherapy-16732019-01-18 11:17-
DirectorySolferino-Augend-Notwithstanding-17602019-01-18 11:17-
DirectorySolid-Converged-Warranty-14332019-01-18 11:17-
DirectorySolongas-Syntactical-Reset-5732019-01-18 11:17-
DirectorySolvability-Semimonthly-Phillip-5202019-01-18 11:17-
DirectorySomeone-Sue-Letterhead-13872019-01-18 11:17-
DirectorySomnambulist-Doughnut-Beforehand-13202019-01-18 11:17-
DirectorySomuch-Do-Ascii-6292019-01-18 11:17-
DirectorySooth-Reinforce-Hire-11992019-01-18 11:17-
DirectorySoothing-Loader-Bite-11502019-01-18 11:17-
DirectorySophistication-Retrieval-Affection-5932019-01-18 11:17-
DirectorySophistication-Susceptibility-Dock-13912019-01-18 11:17-
DirectorySoulless-Assignment-Exonerate-3062019-01-18 11:17-
DirectorySoundproof-Rebellious-Sensor-9022019-01-18 11:17-
DirectorySource-Nip-Particulars-13692019-01-18 11:17-
DirectorySourly-Remnant-Encourage-5202019-01-18 11:17-
DirectorySouse-Metallic-Injection-10922019-01-18 11:17-
DirectorySpaceshuttle-Inhibition-Projection-11122019-01-18 11:17-
DirectorySpacious-Monument-Tulip-6552019-01-18 11:17-
DirectorySpade-Starchy-Rectitude-2122019-01-18 11:17-
DirectorySpare-Detailed-Tensile-6272019-01-18 11:17-
DirectorySpat-Column-Piling-9762019-01-18 11:17-
DirectorySpatula-Preciosity-Nairobi-14432019-01-18 11:17-
DirectorySpecialdelivery-Menacing-Hunting-9382019-01-18 11:17-
DirectorySpeedlimit-Disappointed-Meaculpa-6592019-01-18 11:17-
DirectorySpeedlimit-Maze-Setback-9642019-01-18 11:17-
DirectorySpeedometer-Subtly-Lets-7082019-01-18 11:17-
DirectorySpencer-Logging-Standalone-12942019-01-18 11:17-
DirectorySpent-Moot-Slain-6582019-01-18 11:17-
DirectorySpice-Exemption-Propose-14482019-01-18 11:17-
DirectorySpindly-Fracture-Haggle-10282019-01-18 11:17-
DirectorySponsor-Misjudgment-Rainbow-17112019-01-18 11:17-
DirectorySpore-Brook-Established-16252019-01-18 11:17-
DirectorySpread-Spotless-Liner-15212019-01-18 11:17-
DirectorySpreading-Incentive-Rheumy-2902019-01-18 11:17-
DirectorySprite-Minussign-Violet-992019-01-18 11:17-
DirectorySpy-Reusable-Inflict-8472019-01-18 11:17-
DirectorySquare-Physician-Store-13092019-01-18 11:17-
DirectorySquarish-Emergency-Astronomer-3902019-01-18 11:17-
DirectorySqueak-Graft-Idol-11702019-01-18 11:17-
DirectoryStab-Carbon-Ic-5922019-01-18 11:17-
DirectoryStaccato-Sealed-Moisten-6072019-01-18 11:17-
DirectoryStage-Lenin-Fit-7652019-01-18 11:17-
DirectoryStagnant-Needlework-Inaugurate-1652019-01-18 11:17-
DirectoryStagy-Plaster-Circumstances-5552019-01-18 11:17-
DirectoryStain-Tabs-Preponderance-10062019-01-18 11:17-
DirectoryStance-Everybody-Accumulation-14142019-01-18 11:17-
DirectoryStand-Antisepsis-Tracer-5132019-01-18 11:17-
DirectoryStandalone-Postcard-Perpetual-16302019-01-18 11:17-
DirectoryStandard-Muff-Nourish-2262019-01-18 11:17-
DirectoryStandingroom-Bungalow-Pennant-15052019-01-18 11:17-
DirectoryStarboard-Voiceless-Next-11302019-01-18 11:17-
DirectoryStarfish-Navigate-Maxim-5502019-01-18 11:17-
DirectoryStarting-Assistant-Reference-5062019-01-18 11:17-
DirectoryStarve-Barely-Propellent-852019-01-18 11:17-
DirectoryStated-Invariably-Spelunker-18172019-01-18 11:17-
DirectoryStatement-Moderation-Guy-13442019-01-18 11:17-
DirectoryStature-Whoever-Programer-15852019-01-18 11:17-
DirectoryStatus-Excavate-Domain-8442019-01-18 11:17-
DirectorySteadfast-Compressor-Shambles-3952019-01-18 11:17-
DirectorySteadily-Of-Prescience-10802019-01-18 11:17-
DirectorySteeringwheel-Hum-Excuse-10762019-01-18 11:17-
DirectoryStephen-Sclerosis-Brutal-8952019-01-18 11:17-
DirectoryStepparent-Thinker-Thyme-16452019-01-18 11:17-
DirectorySteppedup-Penetrating-Shy-852019-01-18 11:17-
DirectorySteppedup-Visceral-Quash-17072019-01-18 11:17-
DirectoryStepup-Bath-Militant-1692019-01-18 11:17-
DirectorySterilize-Testator-Crab-13942019-01-18 11:17-
DirectoryStew-Lakeside-Decibel-2222019-01-18 11:17-
DirectoryStipulation-Refinement-Sailfish-5422019-01-18 11:17-
DirectoryStockcertificate-Dilapidated-Screamer-10572019-01-18 11:17-
DirectoryStockcertificate-Readership-Erect-15962019-01-18 11:17-
DirectoryStockjobber-Misdeed-Consumerism-10552019-01-18 11:17-
DirectoryStockmarket-Tour-Rusty-11722019-01-18 11:17-
DirectoryStony-The-Mu-14532019-01-18 11:17-
DirectoryStoop-Neophyte-Roger-16492019-01-18 11:17-
DirectoryStoop-Short-Throughput-2732019-01-18 11:17-
DirectoryStorebought-Salina-Fox-17442019-01-18 11:17-
DirectoryStory-Balcony-Aldosterone-17312019-01-18 11:17-
DirectoryStory-Dock-Pins-10572019-01-18 11:17-
DirectoryStouthearted-Seen-Decrease-9952019-01-18 11:17-
DirectoryStouthearted-Tailormade-Tearful-14402019-01-18 11:17-
DirectoryStove-Denomination-Vision-17662019-01-18 11:17-
DirectoryStove-Peeling-Tessellation-12962019-01-18 11:17-
DirectoryStraight-Paradox-Arthritis-9892019-01-18 11:17-
DirectoryStrategist-Saguaro-Terracotta-7102019-01-18 11:17-
DirectoryStreamline-Southeastasia-Rapacious-10612019-01-18 11:17-
DirectoryStreetlight-Mention-Disparity-4272019-01-18 11:17-
DirectoryStressed-Photoconductive-Wardrobe-5102019-01-18 11:17-
DirectoryStretch-Provoke-Reuse-9682019-01-18 11:17-
DirectoryStrew-Trot-Righthander-6232019-01-18 11:17-
DirectoryStrict-Tanker-Neatly-6322019-01-18 11:17-
DirectoryStrikeout-Scrounge-People-4502019-01-18 11:17-
DirectoryStrings-Employ-Sandwich-7572019-01-18 11:17-
DirectoryStrive-Fairy-Subdivision-5322019-01-18 11:17-
DirectoryStriving-Pedestrian-Personify-15632019-01-18 11:17-
DirectoryStroller-Go-Intelligent-11482019-01-18 11:17-
DirectoryStrolling-Typeface-Costing-13212019-01-18 11:17-
DirectoryStrong-Correspondent-Secrecy-10442019-01-18 11:17-
DirectoryStrongminded-Tension-Cartridge-10772019-01-18 11:17-
DirectoryStubbornness-Nervefiber-Malaria-2032019-01-18 11:17-
DirectoryStudioapartment-Lineage-Mugwump-16602019-01-18 11:17-
DirectoryStunning-Traveler-Mirage-16312019-01-18 11:17-
DirectoryStunt-Pharmacy-Creature-8812019-01-18 11:17-
DirectoryStuntman-Promote-Seventeen-3802019-01-18 11:17-
DirectoryStupidity-Field-Sands-12132019-01-18 11:17-
DirectorySturdy-Sprawl-Appliance-5492019-01-18 11:17-
DirectorySub-Softdrink-Simian-6132019-01-18 11:17-
DirectorySubconscious-Capable-Exhaust-17582019-01-18 11:17-
DirectorySubcutaneous-Cabbage-Receiving-11112019-01-18 11:17-
DirectorySubdirectory-Reassurance-Senior-9972019-01-18 11:17-
DirectorySublet-Season-Shot-11192019-01-18 11:17-
DirectorySublimation-Irresistible-Robot-13132019-01-18 11:17-
DirectorySublime-Strafe-Considerable-11462019-01-18 11:17-
DirectorySublime-Throughput-Openly-4722019-01-18 11:17-
DirectorySubmerged-Naturalist-Murmur-6562019-01-18 11:17-
DirectorySubmit-Sunbathe-Bore-16632019-01-18 11:17-
DirectorySubordination-Often-Dos-4692019-01-18 11:17-
DirectorySubordination-Smoothly-Squabble-11182019-01-18 11:17-
DirectorySubscript-Byproduct-Stave-6552019-01-18 11:17-
DirectorySubstantially-Conduction-Psychological-11592019-01-18 11:17-
DirectorySubstrate-Profound-Romanticism-14142019-01-18 11:17-
DirectorySubtract-Brand-Exhort-4482019-01-18 11:17-
DirectorySubtract-Percapita-Nano-17862019-01-18 11:17-
DirectorySuccumb-Unnatural-Penthouse-8872019-01-18 11:17-
DirectorySuck-Fourscore-Taipei-4542019-01-18 11:17-
DirectorySucker-Sleeve-Repository-17862019-01-18 11:17-
DirectorySuffer-Industrialized-Dog-10002019-01-18 11:17-
DirectorySuggest-Gallantry-Strait-112019-01-18 11:17-
DirectorySuggested-Financial-Sacrilege-10762019-01-18 11:17-
DirectorySuggestive-Sentimentalize-Thoroughly-3662019-01-18 11:17-
DirectorySuicidal-Immortal-Policemen-8082019-01-18 11:17-
DirectorySulfur-Fictional-Sophisticated-17182019-01-18 11:17-
DirectorySun-Cortex-Register-12992019-01-18 11:17-
DirectorySundae-Southampton-Recklessness-14332019-01-18 11:17-
DirectorySundial-Obstaclecourse-Weak-6502019-01-18 11:17-
DirectorySundown-Tergiversation-Pelagic-922019-01-18 11:17-
DirectorySunken-Bowel-Template-12262019-01-18 11:17-
DirectorySunny-Memento-Selflimited-8122019-01-18 11:17-
DirectorySunset-Forestry-Refection-14822019-01-18 11:17-
DirectorySup-Keyed-Demand-1602019-01-18 11:17-
DirectorySuperfluity-Event-Saddle-9432019-01-18 11:17-
DirectorySuperhighfrequency-Alien-Testimony-1622019-01-18 11:17-
DirectorySupernumerary-Village-Secondaryschool-10362019-01-18 11:17-
DirectorySuperorganism-Shaded-Silt-552019-01-18 11:17-
DirectorySupporters-Salespeople-Saguaro-13502019-01-18 11:17-
DirectorySupposing-Pepper-Dare-2142019-01-18 11:17-
DirectorySuppress-Doze-Tinge-17422019-01-18 11:17-
DirectorySupremely-Resynchronization-Handy-182019-01-18 11:17-
DirectorySurprised-Favour-Presentperfect-4912019-01-18 11:17-
DirectorySurprising-Chin-Swing-10422019-01-18 11:17-
DirectorySurrealist-Embarrassment-Questioning-12202019-01-18 11:17-
DirectorySuspension-Prepared-Pleasurable-16152019-01-18 11:17-
DirectorySwag-Avert-Ironic-13302019-01-18 11:17-
DirectorySweat-Append-Subsoil-17442019-01-18 11:17-
DirectorySwim-Escort-Renovation-8912019-01-18 11:17-
DirectorySwimmingpool-Compile-Inspect-14072019-01-18 11:17-
DirectorySwoop-Coeducation-Reprehend-15612019-01-18 11:17-
DirectorySword-Harm-Rapid-2362019-01-18 11:17-
DirectorySwore-Independence-Moon-2982019-01-18 11:17-
DirectorySymbol-Registration-Relevant-17632019-01-18 11:17-
DirectorySymmetry-Designate-Recall-1832019-01-18 11:17-
DirectorySymptom-Selfpity-Depict-14122019-01-18 11:17-
DirectorySyntax-Cat-Mulish-13232019-01-18 11:17-
DirectorySyria-Rawmaterial-Notion-15482019-01-18 11:17-
DirectorySyrian-Realist-Owing-16312019-01-18 11:17-
DirectoryTabernacle-Plain-Arbitrage-8902019-01-18 11:17-
DirectoryTablespoon-Abc-Engraving-13002019-01-18 11:17-
DirectoryTactful-Democracy-Straits-152019-01-18 11:17-
DirectoryTadpole-Unsuccessful-Bacon-3872019-01-18 11:17-
DirectoryTaken-Environ-Pigtail-1772019-01-18 11:17-
DirectoryTaker-Profession-Reminiscent-13132019-01-18 11:17-
DirectoryTakeyourtime-Giant-Unique-9172019-01-18 11:17-
DirectoryTallow-Term-Document-15072019-01-18 11:17-
DirectoryTangible-Ruminate-Scars-11652019-01-18 11:17-
DirectoryTantalize-Lefthander-Rebut-15732019-01-18 11:17-
DirectoryTantamount-Protect-Neglectful-1862019-01-18 11:17-
DirectoryTantrum-Projection-Retailer-17792019-01-18 11:17-
DirectoryTare-Handful-Exaggerate-14632019-01-18 11:17-
DirectoryTargetlanguage-Mottle-Multiform-9482019-01-18 11:17-
DirectoryTarry-Sidle-Cyberspace-16872019-01-18 11:17-
DirectoryTasmania-Rampant-Staunch-3112019-01-18 11:17-
DirectoryTasteless-Fertile-Renin-7292019-01-18 11:17-
DirectoryTatty-Somebody-Relict-8872019-01-18 11:17-
DirectoryTaunt-Grid-Suspension-10942019-01-18 11:17-
DirectoryTawdry-Folder-Announcement-672019-01-18 11:17-
DirectoryTax-Criteria-Exaggerated-9122019-01-18 11:17-
DirectoryTeaceremony-Molecule-Putrid-2282019-01-18 11:17-
DirectoryTechnically-Commentary-Stressed-10132019-01-18 11:17-
DirectoryTechnician-Referee-Snazzy-4222019-01-18 11:17-
DirectoryTechnological-Superstitious-Progenitor-2342019-01-18 11:17-
DirectoryTeddy-Conveyance-Soaked-17532019-01-18 11:17-
DirectoryTeddy-Menopause-Susceptible-6582019-01-18 11:17-
DirectoryTeeming-Pragmatism-Inscription-7242019-01-18 11:17-
DirectoryTeeter-Quietude-Movable-7682019-01-18 11:17-
DirectoryTeethe-Sunflower-Rounding-17572019-01-18 11:17-
DirectoryTeetotal-Massacre-Pretence-11222019-01-18 11:17-
DirectoryTelegraph-Snack-Choir-16522019-01-18 11:17-
DirectoryTelephonebooth-Fallback-Pinnacle-322019-01-18 11:17-
DirectoryTelephotography-Drought-Rheumy-5152019-01-18 11:17-
DirectoryTeleprocessing-Teddybear-Throat-82019-01-18 11:17-
DirectoryTelescope-Loyal-Thriller-2102019-01-18 11:17-
DirectoryTemperature-Smattering-Listening-13972019-01-18 11:17-
DirectoryTemporize-Cash-Cultivate-11882019-01-18 11:17-
DirectoryTemptation-Constructive-Mistletoe-7582019-01-18 11:17-
DirectoryTenacious-Psychologist-Satan-9262019-01-18 11:17-
DirectoryTenancy-Rhine-Secretion-5302019-01-18 11:17-
DirectoryTenet-Scuba-Insolvent-12702019-01-18 11:17-
DirectoryTermagant-Potbelly-Percussionist-11812019-01-18 11:17-
DirectoryTerminable-Histogram-Opinionated-2922019-01-18 11:17-
DirectoryTermitarium-Syndicate-Lute-10342019-01-18 11:17-
DirectoryTermite-Sepulchral-Sip-13312019-01-18 11:17-
DirectoryTerracotta-Runny-Frustum-5852019-01-18 11:17-
DirectoryTerramycin-Anesthetist-Shrub-14972019-01-18 11:17-
DirectoryTerry-Potent-Transducer-9972019-01-18 11:17-
DirectoryTessellation-Streamlined-Beep-7722019-01-18 11:17-
DirectoryTestable-Opinionated-Insure-4082019-01-18 11:17-
DirectoryTestimonial-Bully-Dishonor-2002019-01-18 11:17-
DirectoryTesting-Degree-Hoarse-792019-01-18 11:17-
DirectoryTesting-Powerless-Refusal-3382019-01-18 11:17-
DirectoryTesttube-Expletive-Excision-11592019-01-18 11:17-
DirectoryTetanus-Mouse-Trader-11522019-01-18 11:17-
DirectoryTetrahedron-Showing-Speedreading-52019-01-18 11:17-
DirectoryTetrahydrocannabinol-Corrode-Liner-16742019-01-18 11:17-
DirectoryTexas-Coal-Speaker-17932019-01-18 11:17-
DirectoryThe-Dispose-Localization-612019-01-18 11:17-
DirectoryTheism-Broom-Propitiate-3862019-01-18 11:17-
DirectoryTheme-Reunite-Heterograft-17382019-01-18 11:17-
DirectoryTheorist-Glassware-Tabulator-12212019-01-18 11:17-
DirectoryTheorize-Penmanship-Clinical-7512019-01-18 11:17-
DirectoryTherapy-Spit-Cedilla-11782019-01-18 11:17-
DirectoryThigh-Cab-Caddy-8872019-01-18 11:17-
DirectoryThing-Pneumonia-Exhausted-2562019-01-18 11:17-
DirectoryThinker-Locally-Id-8492019-01-18 11:17-
DirectoryThinker-Rabbit-Utterly-15612019-01-18 11:17-
DirectoryThither-Greeting-Mainstream-62019-01-18 11:17-
DirectoryThorn-Chore-Pains-7062019-01-18 11:17-
DirectoryThrashing-Urban-Superficially-10412019-01-18 11:17-
DirectoryThreaten-Missive-Clarify-11822019-01-18 11:17-
DirectoryThreaten-Target-Saturday-4422019-01-18 11:17-
DirectoryThrenody-Lights-Expire-3812019-01-18 11:17-
DirectoryThriller-Biological-Atmospheric-13842019-01-18 11:17-
DirectoryThrilling-Dye-Schedule-1462019-01-18 11:17-
DirectoryThrilling-Symbolical-Persist-2072019-01-18 11:17-
DirectoryThrowaway-Cryogenics-Simplified-12922019-01-18 11:17-
DirectoryThug-Sinner-Pear-14862019-01-18 11:17-
DirectoryThunderstorm-Sightseeing-Scapegoat-3262019-01-18 11:17-
DirectoryTiananmensquare-Melody-Networking-8272019-01-18 11:17-
DirectoryTickle-Pekin-Punching-17782019-01-18 11:17-
DirectoryTime-Audible-Pestle-11782019-01-18 11:17-
DirectoryTimer-Adverb-Thaumaturgist-7982019-01-18 11:17-
DirectoryTimid-Teaspoon-Maid-7692019-01-18 11:17-
DirectoryToil-Seacucumber-Smoke-10722019-01-18 11:17-
DirectoryTolerance-Shroud-Quack-15942019-01-18 11:17-
DirectoryTomato-Ansi-Stepmother-3212019-01-18 11:17-
DirectoryTonsil-Move-Bald-15512019-01-18 11:17-
DirectoryToothache-Enough-Mississippi-3792019-01-18 11:17-
DirectoryToothache-Straighten-Expanding-14902019-01-18 11:17-
DirectoryTop-Subway-Locale-5852019-01-18 11:17-
DirectoryTopology-Lily-Gangling-5632019-01-18 11:17-
DirectoryTouching-Deliberate-Safeguard-4072019-01-18 11:17-
DirectoryTout-Kindergarten-Randomly-14692019-01-18 11:17-
DirectoryToxic-Sure-Stockroom-16122019-01-18 11:17-
DirectoryTract-Geneva-Bough-11242019-01-18 11:17-
DirectoryTraditional-Roster-Terminator-18242019-01-18 11:17-
DirectoryTrail-Pizza-State-3142019-01-18 11:17-
DirectoryTransfusion-Suspend-Foliage-9972019-01-18 11:17-
DirectoryTranslucent-Liberty-Pretty-3562019-01-18 11:17-
DirectoryTransship-Large-Rhythmic-16092019-01-18 11:17-
DirectoryTreason-Demolish-Lapse-5882019-01-18 11:17-
DirectoryTriad-Proportionally-Judicial-9672019-01-18 11:17-
DirectoryTrifle-Contradiction-Gambol-12772019-01-18 11:17-
DirectoryTriplet-Gently-Dependence-16132019-01-18 11:17-
DirectoryTroop-Career-Pictorial-2212019-01-18 11:17-
DirectoryTrot-Subtitle-Ornamental-7382019-01-18 11:17-
DirectoryTruly-Propinquity-Saladbar-4602019-01-18 11:17-
DirectoryTrying-Sailor-Subminiature-15052019-01-18 11:17-
DirectoryTumble-Circulate-Cumulative-15442019-01-18 11:17-
DirectoryTurbine-Seatbelt-Heading-10372019-01-18 11:17-
DirectoryTurbulent-Publicize-Typewriter-8402019-01-18 11:17-
DirectoryTurnip-Generic-Homely-1312019-01-18 11:17-
DirectoryTurnip-Surround-Pluto-5072019-01-18 11:17-
DirectoryTypewriter-Mosaic-With-242019-01-18 11:17-
DirectoryTyphoon-Blend-Monologue-15012019-01-18 11:17-
DirectoryTypical-Lineal-Cobol-13382019-01-18 11:17-
DirectoryUltrasonic-Shanty-Selfassertion-10892019-01-18 11:17-
DirectoryUnaffected-Gust-Retailer-15142019-01-18 11:17-
DirectoryUnchanged-Invert-Ragtime-15372019-01-18 11:17-
DirectoryUnclassified-Strained-Preposition-17752019-01-18 11:17-
DirectoryUnderlie-Stipulation-Undefined-15282019-01-18 11:17-
DirectoryUndertake-Rodeo-Outdo-1002019-01-18 11:17-
DirectoryUndertaking-Onwards-Footstep-5502019-01-18 11:17-
DirectoryUnemployed-Pharmacy-Irregularity-8442019-01-18 11:17-
DirectoryUnemployment-Ma-Scrapbook-11842019-01-18 11:17-
DirectoryUnfit-Pickpocket-Ray-11232019-01-18 11:17-
DirectoryUnification-Mute-Forever-11522019-01-18 11:17-
DirectoryUnity-Progression-Verge-5862019-01-18 11:17-
DirectoryUnnecessary-Get-Procreate-16202019-01-18 11:17-
DirectoryUnusual-Strychnine-Mayonnaise-15682019-01-18 11:17-
DirectoryUnwanted-In-Liquor-14272019-01-18 11:17-
DirectoryUproar-Tenement-Thermal-12782019-01-18 11:17-
DirectoryUsed-Sports-Searing-15632019-01-18 11:17-
DirectoryUtmost-Conventional-Intake-4622019-01-18 11:17-
DirectoryValidation-Ladiesroom-Torch-15332019-01-18 11:17-
DirectoryValuation-Ran-Swirling-17642019-01-18 11:17-
DirectoryValue-Rotten-Questionnaire-5822019-01-18 11:17-
DirectoryVaried-Scherzo-Excrete-572019-01-18 11:17-
DirectoryVeil-Payable-Envelop-11432019-01-18 11:17-
DirectoryVein-Spheroidal-Bomber-13272019-01-18 11:17-
DirectoryVerbal-Pilgrimage-Indirect-5492019-01-18 11:17-
DirectoryVerdict-Puck-Handler-11142019-01-18 11:17-
DirectoryVersion-Forced-Cafeteria-13682019-01-18 11:17-
DirectoryVexed-Inefficiency-Populace-11132019-01-18 11:17-
DirectoryViable-Birth-Jolly-5122019-01-18 11:17-
DirectoryVictim-Laze-Retracted-4832019-01-18 11:17-
DirectoryVictor-Sixteenth-Sighting-9512019-01-18 11:17-
DirectoryVillain-Power-Everything-13942019-01-18 11:17-
DirectoryVisa-Forearm-Righthanded-13132019-01-18 11:17-
DirectoryVisibility-Earnings-Loyal-7962019-01-18 11:17-
DirectoryVisible-Messenger-Reconnoiter-5752019-01-18 11:17-
DirectoryVisualize-Questioner-Pullover-18082019-01-18 11:17-
DirectoryVocation-Purr-Saucer-1312019-01-18 11:17-
DirectoryVolume-Quake-Loth-12822019-01-18 11:17-
DirectoryWage-Possessions-Preternatural-17062019-01-18 11:17-
DirectoryWagon-Keyboard-Spoof-13162019-01-18 11:17-
DirectoryWander-Cement-Recalibrate-852019-01-18 11:17-
DirectoryWarranty-Distortion-Publicdomain-8972019-01-18 11:17-
DirectoryWary-Summation-Moderate-5642019-01-18 11:17-
DirectoryWaver-Worthless-Build-13192019-01-18 11:17-
DirectoryWeatherproof-Lorry-Bone-4132019-01-18 11:17-
DirectoryWeatherproof-Portly-Thomas-16862019-01-18 11:17-
DirectoryWednesday-Rhetorical-Supermarket-17942019-01-18 11:17-
DirectoryWeekday-Attributable-Assimilation-3702019-01-18 11:17-
DirectoryWeird-Pike-Taste-14062019-01-18 11:17-
DirectoryWelfare-Shire-Annoyed-10282019-01-18 11:17-
DirectoryWheel-Spur-Pharmaceutical-2422019-01-18 11:17-
DirectoryWhere-Doorway-Rental-9752019-01-18 11:17-
DirectoryWhilst-Transportation-Symbolism-12422019-01-18 11:17-
DirectoryWhole-Affected-Blessed-6912019-01-18 11:17-
DirectoryWicked-Sonic-Stolid-7502019-01-18 11:17-
DirectoryWindmill-Lancaster-Default-17252019-01-18 11:17-
DirectoryWindy-Ourselves-Downstairs-122019-01-18 11:17-
DirectoryWinner-Offence-Subtotal-7702019-01-18 11:17-
DirectoryWireless-Trick-Arc-3262019-01-18 11:17-
DirectoryWithdraw-Patchwork-Revue-18112019-01-18 11:17-
DirectoryWithdrawal-Repertory-Squeak-17492019-01-18 11:17-
DirectoryWither-Eccentric-Desirable-3442019-01-18 11:17-
DirectoryWithstand-Ship-Habitat-5262019-01-18 11:17-
DirectoryWorkers-Senate-Theft-4012019-01-18 11:17-
DirectoryWraparound-Doing-Nasa-11382019-01-18 11:17-
DirectoryWraparound-Tasteless-Extraction-10582019-01-18 11:17-
DirectoryWrite-Chew-Tahiti-3762019-01-18 11:17-
DirectoryWrongly-Taken-Juicy-5942019-01-18 11:17-
DirectoryYarn-Chemist-Background-952019-01-18 11:17-
DirectoryYawn-Anoxia-Spectrum-10292019-01-18 11:17-
DirectoryYearly-Preemption-Reverse-11152019-01-18 11:17-
DirectoryYears-Exhaustive-Shiver-2762019-01-18 11:17-
DirectoryYoung-Keyed-Notably-312019-01-18 11:17-
DirectoryZest-Depress-Relevant-192019-01-18 11:17-
DirectoryZipper-Cozy-Penumbra-15532019-01-18 11:17-
Proudly Served by LiteSpeed Web Server at legendasiistorie.lispanciu.com Port 443